Observation data for Sweetwater on 02/24/2019      Previous  Date  Next       Current Mesonet Observations  Soil Data  Daily Summary Page  Observations in Plain Language
KSW1 240600Z 05008KT 03/M03 A3022 RMK A01 T00341031  RH  062%=      5-min Rain = 0
KSW1 240601Z 04008KT 03/M03 A3022 RMK A01 T00341031  RH  062%=      5-min Rain = 0
KSW1 240602Z 04008KT 03/M03 A3022 RMK A01 T00341031  RH  062%=      5-min Rain = 0
KSW1 240603Z 05008KT 03/M03 A3023 RMK A01 T00341031  RH  062%=      5-min Rain = 0
KSW1 240604Z 05008KT 03/M03 A3023 RMK A01 T00341031  RH  063%=      5-min Rain = 0
KSW1 240605Z 05008KT 03/M03 A3023 RMK A01 T00331032  RH  063%=      5-min Rain = 0
KSW1 240606Z 05008KT 03/M03 A3023 RMK A01 T00331031  RH  063%=      5-min Rain = 0
KSW1 240607Z 05008KT 03/M03 A3023 RMK A01 T00331031  RH  063%=      5-min Rain = 0
KSW1 240608Z 05008KT 03/M03 A3023 RMK A01 T00331031  RH  063%=      5-min Rain = 0
KSW1 240609Z 05008KT 03/M03 A3023 RMK A01 T00321031  RH  063%=      5-min Rain = 0
KSW1 240610Z 05008KT 03/M03 A3023 RMK A01 T00321032  RH  063%=      5-min Rain = 0
KSW1 240611Z 05008KT 03/M03 A3023 RMK A01 T00311032  RH  063%=      5-min Rain = 0
KSW1 240612Z 05008KT 03/M03 A3023 RMK A01 T00311031  RH  064%=      5-min Rain = 0
KSW1 240613Z 05008KT 03/M03 A3023 RMK A01 T00311031  RH  064%=      5-min Rain = 0
KSW1 240614Z 04007KT 03/M03 A3023 RMK A01 T00311031  RH  064%=      5-min Rain = 0
KSW1 240615Z 05007KT 03/M03 A3023 RMK A01 T00311031  RH  064%=      5-min Rain = 0
KSW1 240616Z 05007KT 03/M03 A3023 RMK A01 T00311031  RH  064%=      5-min Rain = 0
KSW1 240617Z 05007KT 03/M03 A3023 RMK A01 T00321031  RH  063%=      5-min Rain = 0
KSW1 240618Z 05007KT 03/M03 A3023 RMK A01 T00321031  RH  063%=      5-min Rain = 0
KSW1 240619Z 05007KT 03/M03 A3023 RMK A01 T00321031  RH  063%=      5-min Rain = 0
KSW1 240620Z 05007KT 03/M03 A3023 RMK A01 T00321031  RH  063%=      5-min Rain = 0
KSW1 240621Z 04006KT 03/M03 A3023 RMK A01 T00311031  RH  063%=      5-min Rain = 0
KSW1 240622Z 05006KT 03/M03 A3023 RMK A01 T00311031  RH  064%=      5-min Rain = 0
KSW1 240623Z 05006KT 03/M03 A3023 RMK A01 T00311031  RH  064%=      5-min Rain = 0
KSW1 240624Z 05006KT 03/M03 A3023 RMK A01 T00311031  RH  064%=      5-min Rain = 0
KSW1 240625Z 05006KT 03/M03 A3023 RMK A01 T00311032  RH  064%=      5-min Rain = 0
KSW1 240626Z 05006KT 03/M03 A3023 RMK A01 T00311032  RH  064%=      5-min Rain = 0
KSW1 240627Z 06006KT 03/M03 A3024 RMK A01 T00311032  RH  063%=      5-min Rain = 0
KSW1 240628Z 06006KT 03/M03 A3024 RMK A01 T00311032  RH  063%=      5-min Rain = 0
KSW1 240629Z 06005KT 03/M03 A3024 RMK A01 T00301033  RH  064%=      5-min Rain = 0
KSW1 240630Z 06005KT 03/M03 A3024 RMK A01 T00291033  RH  064%=      5-min Rain = 0
KSW1 240631Z 06005KT 03/M03 A3024 RMK A01 T00281033  RH  064%=      5-min Rain = 0
KSW1 240632Z 07005KT 03/M03 A3024 RMK A01 T00261033  RH  065%=      5-min Rain = 0
KSW1 240633Z 06005KT 03/M03 A3024 RMK A01 T00251033  RH  065%=      5-min Rain = 0
KSW1 240634Z 06006KT 02/M03 A3024 RMK A01 T00241034  RH  066%=      5-min Rain = 0
KSW1 240635Z 06006KT 02/M03 A3024 RMK A01 T00241034  RH  066%=      5-min Rain = 0
KSW1 240636Z 06006KT 02/M04 A3024 RMK A01 T00231035  RH  066%=      5-min Rain = 0
KSW1 240637Z 06006KT 02/M04 A3024 RMK A01 T00221035  RH  066%=      5-min Rain = 0
KSW1 240638Z 06006KT 02/M04 A3024 RMK A01 T00211035  RH  066%=      5-min Rain = 0
KSW1 240639Z 06006KT 02/M03 A3024 RMK A01 T00211034  RH  067%=      5-min Rain = 0
KSW1 240640Z 06006KT 02/M03 A3024 RMK A01 T00221034  RH  067%=      5-min Rain = 0
KSW1 240641Z 05006KT 02/M03 A3024 RMK A01 T00221033  RH  067%=      5-min Rain = 0
KSW1 240642Z 05006KT 02/M03 A3024 RMK A01 T00231033  RH  066%=      5-min Rain = 0
KSW1 240643Z 05006KT 02/M03 A3024 RMK A01 T00241033  RH  066%=      5-min Rain = 0
KSW1 240644Z 05006KT 02/M03 A3024 RMK A01 T00241033  RH  066%=      5-min Rain = 0
KSW1 240645Z 05006KT 02/M03 A3024 RMK A01 T00241033  RH  066%=      5-min Rain = 0
KSW1 240646Z 06006KT 02/M03 A3024 RMK A01 T00241033  RH  066%=      5-min Rain = 0
KSW1 240647Z 06006KT 02/M03 A3024 RMK A01 T00241034  RH  066%=      5-min Rain = 0
KSW1 240648Z 05007KT 02/M03 A3025 RMK A01 T00241034  RH  066%=      5-min Rain = 0
KSW1 240649Z 05007KT 02/M03 A3025 RMK A01 T00231034  RH  066%=      5-min Rain = 0
KSW1 240650Z 05007KT 02/M04 A3025 RMK A01 T00221035  RH  066%=      5-min Rain = 0
KSW1 240651Z 05007KT 02/M04 A3025 RMK A01 T00211036  RH  066%=      5-min Rain = 0
KSW1 240652Z 05006KT 02/M04 A3025 RMK A01 T00211035  RH  066%=      5-min Rain = 0
KSW1 240653Z 05006KT 02/M04 A3025 RMK A01 T00211035  RH  066%=      5-min Rain = 0
KSW1 240654Z 05006KT 02/M04 A3025 RMK A01 T00211035  RH  066%=      5-min Rain = 0
KSW1 240655Z 06006KT 02/M04 A3025 RMK A01 T00221035  RH  066%=      5-min Rain = 0
KSW1 240656Z 06006KT 02/M04 A3025 RMK A01 T00221035  RH  066%=      5-min Rain = 0
KSW1 240657Z 05006KT 02/M04 A3025 RMK A01 T00231035  RH  066%=      5-min Rain = 0
KSW1 240658Z 05006KT 02/M04 A3025 RMK A01 T00231035  RH  066%=      5-min Rain = 0
KSW1 240659Z 05006KT 02/M04 A3025 RMK A01 T00231035  RH  066%=      5-min Rain = 0
KSW1 240700Z 05005KT 02/M04 A3025 RMK A01 T00231035  RH  066%=      5-min Rain = 0
KSW1 240701Z 05005KT 02/M04 A3025 RMK A01 T00231035  RH  066%=      5-min Rain = 0
KSW1 240702Z 05004KT 02/M04 A3025 RMK A01 T00231035  RH  065%=      5-min Rain = 0
KSW1 240703Z 05004KT 02/M04 A3025 RMK A01 T00231035  RH  065%=      5-min Rain = 0
KSW1 240704Z 05004KT 02/M04 A3025 RMK A01 T00231035  RH  065%=      5-min Rain = 0
KSW1 240705Z 05003KT 02/M04 A3025 RMK A01 T00231035  RH  065%=      5-min Rain = 0
KSW1 240706Z 05003KT 02/M04 A3026 RMK A01 T00231035  RH  065%=      5-min Rain = 0
KSW1 240707Z 05003KT 02/M04 A3026 RMK A01 T00231035  RH  066%=      5-min Rain = 0
KSW1 240708Z 05003KT 02/M04 A3026 RMK A01 T00221035  RH  066%=      5-min Rain = 0
KSW1 240709Z 04003KT 02/M04 A3026 RMK A01 T00211035  RH  066%=      5-min Rain = 0
KSW1 240710Z 04003KT 02/M03 A3026 RMK A01 T00221034  RH  066%=      5-min Rain = 0
KSW1 240711Z 04004KT 03/M03 A3026 RMK A01 T00251032  RH  066%=      5-min Rain = 0
KSW1 240712Z 05005KT 03/M03 A3026 RMK A01 T00281031  RH  065%=      5-min Rain = 0
KSW1 240713Z 04005KT 03/M03 A3026 RMK A01 T00291032  RH  064%=      5-min Rain = 0
KSW1 240714Z 05005KT 03/M03 A3026 RMK A01 T00291033  RH  064%=      5-min Rain = 0
KSW1 240715Z 04006KT 03/M03 A3026 RMK A01 T00291034  RH  064%=      5-min Rain = 0
KSW1 240716Z 04007KT 03/M03 A3026 RMK A01 T00271034  RH  064%=      5-min Rain = 0
KSW1 240717Z 04007KT 03/M04 A3026 RMK A01 T00261035  RH  064%=      5-min Rain = 0
KSW1 240718Z 04007KT 03/M04 A3026 RMK A01 T00251035  RH  064%=      5-min Rain = 0
KSW1 240719Z 04007KT 02/M04 A3026 RMK A01 T00241035  RH  065%=      5-min Rain = 0
KSW1 240720Z 04007KT 03/M04 A3026 RMK A01 T00251035  RH  065%=      5-min Rain = 0
KSW1 240721Z 03006KT 03/M04 A3026 RMK A01 T00251035  RH  065%=      5-min Rain = 0
KSW1 240722Z 03006KT 03/M03 A3026 RMK A01 T00251034  RH  065%=      5-min Rain = 0
KSW1 240723Z 03006KT 03/M03 A3026 RMK A01 T00261033  RH  065%=      5-min Rain = 0
KSW1 240724Z 04006KT 03/M03 A3026 RMK A01 T00281032  RH  065%=      5-min Rain = 0
KSW1 240725Z 04006KT 03/M03 A3026 RMK A01 T00291031  RH  064%=      5-min Rain = 0
KSW1 240726Z 03007KT 03/M03 A3026 RMK A01 T00301031  RH  064%=      5-min Rain = 0
KSW1 240727Z 03007KT 03/M03 A3026 RMK A01 T00311032  RH  064%=      5-min Rain = 0
KSW1 240728Z 03006KT 03/M03 A3026 RMK A01 T00311032  RH  063%=      5-min Rain = 0
KSW1 240729Z 03006KT 03/M03 A3027 RMK A01 T00311032  RH  063%=      5-min Rain = 0
KSW1 240730Z 03006KT 03/M03 A3027 RMK A01 T00311032  RH  063%=      5-min Rain = 0
KSW1 240731Z 03006KT 03/M03 A3027 RMK A01 T00311033  RH  063%=      5-min Rain = 0
KSW1 240732Z 03006KT 03/M03 A3027 RMK A01 T00301033  RH  063%=      5-min Rain = 0
KSW1 240733Z 03006KT 03/M03 A3027 RMK A01 T00301033  RH  063%=      5-min Rain = 0
KSW1 240734Z 03006KT 03/M03 A3027 RMK A01 T00301034  RH  063%=      5-min Rain = 0
KSW1 240735Z 03006KT 03/M03 A3027 RMK A01 T00291034  RH  063%=      5-min Rain = 0
KSW1 240736Z 03007KT 03/M04 A3027 RMK A01 T00271035  RH  064%=      5-min Rain = 0
KSW1 240737Z 03007KT 03/M04 A3027 RMK A01 T00251035  RH  064%=      5-min Rain = 0
KSW1 240738Z 03007KT 02/M04 A3027 RMK A01 T00241036  RH  065%=      5-min Rain = 0
KSW1 240739Z 03006KT 02/M04 A3027 RMK A01 T00231035  RH  065%=      5-min Rain = 0
KSW1 240740Z 04007KT 02/M04 A3027 RMK A01 T00221035  RH  066%=      5-min Rain = 0
KSW1 240741Z 04007KT 02/M04 A3027 RMK A01 T00201036  RH  066%=      5-min Rain = 0
KSW1 240742Z 04007KT 02/M04 A3027 RMK A01 T00191036  RH  067%=      5-min Rain = 0
KSW1 240743Z 04007KT 02/M04 A3027 RMK A01 T00191036  RH  067%=      5-min Rain = 0
KSW1 240744Z 04008KT 02/M04 A3027 RMK A01 T00181036  RH  067%=      5-min Rain = 0
KSW1 240745Z 04008KT 02/M04 A3027 RMK A01 T00181035  RH  068%=      5-min Rain = 0
KSW1 240746Z 03008KT 02/M03 A3027 RMK A01 T00181034  RH  068%=      5-min Rain = 0
KSW1 240747Z 03008KT 02/M03 A3027 RMK A01 T00191033  RH  068%=      5-min Rain = 0
KSW1 240748Z 03008KT 02/M03 A3027 RMK A01 T00221032  RH  068%=      5-min Rain = 0
KSW1 240749Z 03008KT 03/M03 A3027 RMK A01 T00251030  RH  067%=      5-min Rain = 0
KSW1 240750Z 03008KT 03/M03 A3027 RMK A01 T00271031  RH  066%=      5-min Rain = 0
KSW1 240751Z 03008KT 03/M03 A3027 RMK A01 T00281031  RH  065%=      5-min Rain = 0
KSW1 240752Z 03008KT 03/M03 A3027 RMK A01 T00301031  RH  065%=      5-min Rain = 0
KSW1 240753Z 03008KT 03/M03 A3027 RMK A01 T00301031  RH  064%=      5-min Rain = 0
KSW1 240754Z 03009KT 03/M03 A3027 RMK A01 T00301031  RH  064%=      5-min Rain = 0
KSW1 240755Z 03009KT 03/M03 A3027 RMK A01 T00301031  RH  064%=      5-min Rain = 0
KSW1 240756Z 03009KT 03/M03 A3027 RMK A01 T00281032  RH  065%=      5-min Rain = 0
KSW1 240757Z 04009KT 03/M03 A3027 RMK A01 T00271032  RH  065%=      5-min Rain = 0
KSW1 240758Z 04008KT 03/M03 A3027 RMK A01 T00261033  RH  065%=      5-min Rain = 0
KSW1 240759Z 04008KT 03/M03 A3027 RMK A01 T00251033  RH  066%=      5-min Rain = 0
KSW1 240800Z 04008KT 02/M03 A3027 RMK A01 T00241033  RH  066%=      5-min Rain = 0
KSW1 240801Z 04007KT 02/M03 A3027 RMK A01 T00231034  RH  066%=      5-min Rain = 0
KSW1 240802Z 04007KT 02/M03 A3027 RMK A01 T00221034  RH  067%=      5-min Rain = 0
KSW1 240803Z 04007KT 02/M04 A3027 RMK A01 T00201035  RH  067%=      5-min Rain = 0
KSW1 240804Z 04007KT 02/M04 A3027 RMK A01 T00181036  RH  068%=      5-min Rain = 0
KSW1 240805Z 04007KT 02/M04 A3027 RMK A01 T00171036  RH  068%=      5-min Rain = 0
KSW1 240806Z 04007KT 02/M04 A3027 RMK A01 T00161036  RH  069%=      5-min Rain = 0
KSW1 240807Z 04007KT 02/M04 A3027 RMK A01 T00151035  RH  069%=      5-min Rain = 0
KSW1 240808Z 04007KT 01/M04 A3027 RMK A01 T00141035  RH  069%=      5-min Rain = 0
KSW1 240809Z 04006KT 02/M04 A3027 RMK A01 T00151035  RH  070%=      5-min Rain = 0
KSW1 240810Z 04006KT 02/M03 A3027 RMK A01 T00151034  RH  070%=      5-min Rain = 0
KSW1 240811Z 05006KT 02/M03 A3027 RMK A01 T00161034  RH  070%=      5-min Rain = 0
KSW1 240812Z 05006KT 02/M03 A3027 RMK A01 T00161034  RH  069%=      5-min Rain = 0
KSW1 240813Z 04006KT 02/M04 A3027 RMK A01 T00161035  RH  069%=      5-min Rain = 0
KSW1 240814Z 04008KT 02/M04 A3027 RMK A01 T00151035  RH  069%=      5-min Rain = 0
KSW1 240815Z 04008KT 01/M04 A3027 RMK A01 T00141036  RH  069%=      5-min Rain = 0
KSW1 240816Z 04008KT 01/M04 A3027 RMK A01 T00121036  RH  070%=      5-min Rain = 0
KSW1 240817Z 04009KT 01/M03 A3027 RMK A01 T00131034  RH  071%=      5-min Rain = 0
KSW1 240818Z 04008KT 02/M03 A3027 RMK A01 T00151032  RH  071%=      5-min Rain = 0
KSW1 240819Z 04008KT 02/M03 A3027 RMK A01 T00191031  RH  070%=      5-min Rain = 0
KSW1 240820Z 04009KT 02/M03 A3027 RMK A01 T00211030  RH  069%=      5-min Rain = 0
KSW1 240821Z 04009KT 02/M03 A3027 RMK A01 T00221031  RH  068%=      5-min Rain = 0
KSW1 240822Z 04009KT 02/M03 A3027 RMK A01 T00221031  RH  068%=      5-min Rain = 0
KSW1 240823Z 04009KT 02/M03 A3027 RMK A01 T00231031  RH  068%=      5-min Rain = 0
KSW1 240824Z 04009KT 02/M03 A3027 RMK A01 T00241031  RH  067%=      5-min Rain = 0
KSW1 240825Z 04009KT 03/M03 A3027 RMK A01 T00251031  RH  067%=      5-min Rain = 0
KSW1 240826Z 04010KT 03/M03 A3027 RMK A01 T00251031  RH  067%=      5-min Rain = 0
KSW1 240827Z 04009KT 03/M03 A3027 RMK A01 T00251031  RH  067%=      5-min Rain = 0
KSW1 240828Z 04009KT 03/M03 A3028 RMK A01 T00251031  RH  067%=      5-min Rain = 0
KSW1 240829Z 04009KT 03/M03 A3028 RMK A01 T00251031  RH  067%=      5-min Rain = 0
KSW1 240830Z 04009KT 03/M03 A3028 RMK A01 T00251031  RH  067%=      5-min Rain = 0
KSW1 240831Z 04009KT 02/M03 A3028 RMK A01 T00241031  RH  067%=      5-min Rain = 0
KSW1 240832Z 04008KT 02/M03 A3028 RMK A01 T00231032  RH  067%=      5-min Rain = 0
KSW1 240833Z 04008KT 02/M03 A3028 RMK A01 T00221033  RH  067%=      5-min Rain = 0
KSW1 240834Z 04009KT 02/M03 A3028 RMK A01 T00211033  RH  068%=      5-min Rain = 0
KSW1 240835Z 04009KT 02/M03 A3028 RMK A01 T00191034  RH  068%=      5-min Rain = 0
KSW1 240836Z 04009KT 02/M03 A3028 RMK A01 T00191033  RH  068%=      5-min Rain = 0
KSW1 240837Z 04009KT 02/M03 A3028 RMK A01 T00181033  RH  069%=      5-min Rain = 0
KSW1 240838Z 03009KT 02/M03 A3028 RMK A01 T00181033  RH  069%=      5-min Rain = 0
KSW1 240839Z 03009KT 02/M03 A3028 RMK A01 T00181033  RH  069%=      5-min Rain = 0
KSW1 240840Z 03009KT 02/M03 A3028 RMK A01 T00191033  RH  069%=      5-min Rain = 0
KSW1 240841Z 03009KT 02/M03 A3028 RMK A01 T00191033  RH  069%=      5-min Rain = 0
KSW1 240842Z 03009KT 02/M03 A3028 RMK A01 T00201032  RH  068%=      5-min Rain = 0
KSW1 240843Z 03010KT 02/M03 A3028 RMK A01 T00191033  RH  068%=      5-min Rain = 0
KSW1 240844Z 03009KT 02/M03 A3028 RMK A01 T00201033  RH  068%=      5-min Rain = 0
KSW1 240845Z 03010KT 02/M03 A3028 RMK A01 T00201033  RH  068%=      5-min Rain = 0
KSW1 240846Z 03010KT 02/M03 A3028 RMK A01 T00191033  RH  068%=      5-min Rain = 0
KSW1 240847Z 03010KT 02/M03 A3028 RMK A01 T00191032  RH  069%=      5-min Rain = 0
KSW1 240848Z 03010KT 02/M03 A3028 RMK A01 T00191032  RH  069%=      5-min Rain = 0
KSW1 240849Z 03010KT 02/M03 A3027 RMK A01 T00191032  RH  069%=      5-min Rain = 0
KSW1 240850Z 03010KT 02/M03 A3027 RMK A01 T00191032  RH  069%=      5-min Rain = 0
KSW1 240851Z 03011KT 02/M03 A3027 RMK A01 T00191032  RH  069%=      5-min Rain = 0
KSW1 240852Z 03010KT 02/M03 A3027 RMK A01 T00191032  RH  069%=      5-min Rain = 0
KSW1 240853Z 03009KT 02/M03 A3027 RMK A01 T00201032  RH  069%=      5-min Rain = 0
KSW1 240854Z 03009KT 02/M03 A3027 RMK A01 T00211032  RH  068%=      5-min Rain = 0
KSW1 240855Z 03011KT 02/M03 A3027 RMK A01 T00211032  RH  068%=      5-min Rain = 0
KSW1 240856Z 04011KT 02/M03 A3027 RMK A01 T00201033  RH  068%=      5-min Rain = 0
KSW1 240857Z 04011KT 02/M03 A3027 RMK A01 T00201032  RH  068%=      5-min Rain = 0
KSW1 240858Z 03010KT 02/M03 A3028 RMK A01 T00211032  RH  068%=      5-min Rain = 0
KSW1 240859Z 04010KT 02/M03 A3027 RMK A01 T00211032  RH  068%=      5-min Rain = 0
KSW1 240900Z 03010KT 02/M03 A3028 RMK A01 T00211032  RH  068%=      5-min Rain = 0
KSW1 240901Z 03010KT 02/M03 A3028 RMK A01 T00201033  RH  068%=      5-min Rain = 0
KSW1 240902Z 03010KT 02/M03 A3028 RMK A01 T00181033  RH  069%=      5-min Rain = 0
KSW1 240903Z 03010KT 02/M03 A3028 RMK A01 T00171033  RH  069%=      5-min Rain = 0
KSW1 240904Z 03010KT 02/M03 A3028 RMK A01 T00161033  RH  070%=      5-min Rain = 0
KSW1 240905Z 03010KT 02/M03 A3028 RMK A01 T00161033  RH  070%=      5-min Rain = 0
KSW1 240906Z 03011KT 02/M03 A3028 RMK A01 T00161033  RH  070%=      5-min Rain = 0
KSW1 240907Z 03010KT 02/M03 A3027 RMK A01 T00161033  RH  070%=      5-min Rain = 0
KSW1 240908Z 03009KT 02/M03 A3028 RMK A01 T00161033  RH  070%=      5-min Rain = 0
KSW1 240909Z 03009KT 02/M03 A3028 RMK A01 T00161033  RH  070%=      5-min Rain = 0
KSW1 240910Z 03009KT 02/M03 A3028 RMK A01 T00151033  RH  070%=      5-min Rain = 0
KSW1 240911Z 03009KT 02/M03 A3028 RMK A01 T00151034  RH  070%=      5-min Rain = 0
KSW1 240912Z 03009KT 01/M03 A3028 RMK A01 T00141034  RH  070%=      5-min Rain = 0
KSW1 240913Z 03010KT 01/M03 A3028 RMK A01 T00141034  RH  070%=      5-min Rain = 0
KSW1 240914Z 03009KT 01/M03 A3028 RMK A01 T00141033  RH  071%=      5-min Rain = 0
KSW1 240915Z 03010KT 02/M03 A3028 RMK A01 T00151033  RH  071%=      5-min Rain = 0
KSW1 240916Z 03010KT 02/M03 A3028 RMK A01 T00151033  RH  070%=      5-min Rain = 0
KSW1 240917Z 03010KT 02/M03 A3028 RMK A01 T00151033  RH  070%=      5-min Rain = 0
KSW1 240918Z 03010KT 02/M03 A3028 RMK A01 T00161033  RH  070%=      5-min Rain = 0
KSW1 240919Z 03010KT 02/M03 A3028 RMK A01 T00161033  RH  070%=      5-min Rain = 0
KSW1 240920Z 03010KT 02/M03 A3028 RMK A01 T00161034  RH  070%=      5-min Rain = 0
KSW1 240921Z 03010KT 02/M03 A3028 RMK A01 T00161034  RH  070%=      5-min Rain = 0
KSW1 240922Z 03010KT 02/M03 A3028 RMK A01 T00151034  RH  070%=      5-min Rain = 0
KSW1 240923Z 03010KT 02/M03 A3028 RMK A01 T00151034  RH  070%=      5-min Rain = 0
KSW1 240924Z 03010KT 02/M04 A3028 RMK A01 T00151035  RH  070%=      5-min Rain = 0
KSW1 240925Z 03010KT 02/M04 A3028 RMK A01 T00151035  RH  070%=      5-min Rain = 0
KSW1 240926Z 02011KT 01/M04 A3028 RMK A01 T00141035  RH  070%=      5-min Rain = 0
KSW1 240927Z 02011KT 02/M04 A3028 RMK A01 T00151035  RH  070%=      5-min Rain = 0
KSW1 240928Z 03010KT 02/M03 A3028 RMK A01 T00151034  RH  070%=      5-min Rain = 0
KSW1 240929Z 02011KT 02/M04 A3028 RMK A01 T00151035  RH  069%=      5-min Rain = 0
KSW1 240930Z 02010KT 02/M04 A3028 RMK A01 T00161035  RH  069%=      5-min Rain = 0
KSW1 240931Z 02010KT 02/M04 A3028 RMK A01 T00161035  RH  069%=      5-min Rain = 0
KSW1 240932Z 03011KT 02/M04 A3028 RMK A01 T00161035  RH  069%=      5-min Rain = 0
KSW1 240933Z 02011KT 02/M04 A3028 RMK A01 T00151035  RH  069%=      5-min Rain = 0
KSW1 240934Z 02010KT 02/M04 A3028 RMK A01 T00161035  RH  069%=      5-min Rain = 0
KSW1 240935Z 02010KT 02/M04 A3028 RMK A01 T00171036  RH  068%=      5-min Rain = 0
KSW1 240936Z 02011KT 02/M04 A3028 RMK A01 T00181036  RH  068%=      5-min Rain = 0
KSW1 240937Z 03010KT 02/M04 A3028 RMK A01 T00191036  RH  067%=      5-min Rain = 0
KSW1 240938Z 03009KT 02/M04 A3028 RMK A01 T00191036  RH  067%=      5-min Rain = 0
KSW1 240939Z 03009KT 02/M04 A3028 RMK A01 T00191036  RH  067%=      5-min Rain = 0
KSW1 240940Z 03011KT 02/M04 A3028 RMK A01 T00171038  RH  067%=      5-min Rain = 0
KSW1 240941Z 03011KT 02/M04 A3028 RMK A01 T00161038  RH  067%=      5-min Rain = 0
KSW1 240942Z 03010KT 02/M04 A3028 RMK A01 T00161039  RH  067%=      5-min Rain = 0
KSW1 240943Z 03010KT 02/M04 A3028 RMK A01 T00151040  RH  067%=      5-min Rain = 0
KSW1 240944Z 03010KT 01/M04 A3028 RMK A01 T00141041  RH  067%=      5-min Rain = 0
KSW1 240945Z 03010KT 01/M04 A3028 RMK A01 T00141041  RH  067%=      5-min Rain = 0
KSW1 240946Z 03009KT 01/M04 A3028 RMK A01 T00131040  RH  067%=      5-min Rain = 0
KSW1 240947Z 03010KT 01/M04 A3028 RMK A01 T00131041  RH  068%=      5-min Rain = 0
KSW1 240948Z 03010KT 01/M04 A3028 RMK A01 T00121041  RH  068%=      5-min Rain = 0
KSW1 240949Z 03010KT 01/M04 A3028 RMK A01 T00111040  RH  069%=      5-min Rain = 0
KSW1 240950Z 03010KT 01/M04 A3028 RMK A01 T00111040  RH  069%=      5-min Rain = 0
KSW1 240951Z 03011KT 01/M04 A3028 RMK A01 T00101040  RH  069%=      5-min Rain = 0
KSW1 240952Z 03010KT 01/M04 A3028 RMK A01 T00101040  RH  069%=      5-min Rain = 0
KSW1 240953Z 03011KT 01/M04 A3028 RMK A01 T00101040  RH  069%=      5-min Rain = 0
KSW1 240954Z 03010KT 01/M04 A3028 RMK A01 T00091041  RH  069%=      5-min Rain = 0
KSW1 240955Z 02010KT 01/M04 A3028 RMK A01 T00091041  RH  069%=      5-min Rain = 0
KSW1 240956Z 02011KT 01/M04 A3028 RMK A01 T00091042  RH  068%=      5-min Rain = 0
KSW1 240957Z 03011KT 01/M04 A3028 RMK A01 T00091044  RH  068%=      5-min Rain = 0
KSW1 240958Z 03010KT 01/M04 A3028 RMK A01 T00101044  RH  067%=      5-min Rain = 0
KSW1 240959Z 03010KT 01/M05 A3028 RMK A01 T00101045  RH  067%=      5-min Rain = 0
KSW1 241000Z 03010KT 01/M05 A3028 RMK A01 T00101045  RH  067%=      5-min Rain = 0
KSW1 241001Z 03011KT 01/M05 A3028 RMK A01 T00101045  RH  067%=      5-min Rain = 0
KSW1 241002Z 04011KT 01/M05 A3028 RMK A01 T00101045  RH  067%=      5-min Rain = 0
KSW1 241003Z 03011KT 01/M05 A3028 RMK A01 T00091045  RH  067%=      5-min Rain = 0
KSW1 241004Z 03011KT 01/M05 A3028 RMK A01 T00081045  RH  067%=      5-min Rain = 0
KSW1 241005Z 04011KT 01/M05 A3028 RMK A01 T00081045  RH  067%=      5-min Rain = 0
KSW1 241006Z 04010KT 01/M05 A3028 RMK A01 T00071046  RH  068%=      5-min Rain = 0
KSW1 241007Z 04010KT 01/M05 A3028 RMK A01 T00071046  RH  068%=      5-min Rain = 0
KSW1 241008Z 04010KT 01/M05 A3029 RMK A01 T00061046  RH  068%=      5-min Rain = 0
KSW1 241009Z 04010KT 01/M05 A3028 RMK A01 T00061046  RH  068%=      5-min Rain = 0
KSW1 241010Z 04010KT 01/M05 A3028 RMK A01 T00061046  RH  068%=      5-min Rain = 0
KSW1 241011Z 04010KT 01/M05 A3028 RMK A01 T00061046  RH  068%=      5-min Rain = 0
KSW1 241012Z 04010KT 01/M05 A3028 RMK A01 T00061047  RH  068%=      5-min Rain = 0
KSW1 241013Z 04011KT 01/M05 A3028 RMK A01 T00061047  RH  067%=      5-min Rain = 0
KSW1 241014Z 04011KT 01/M05 A3028 RMK A01 T00071049  RH  066%=      5-min Rain = 0
KSW1 241015Z 04011KT 01/M05 A3028 RMK A01 T00081051  RH  065%=      5-min Rain = 0
KSW1 241016Z 04011KT 01/M05 A3028 RMK A01 T00091052  RH  064%=      5-min Rain = 0
KSW1 241017Z 04011KT 01/M05 A3028 RMK A01 T00091053  RH  063%=      5-min Rain = 0
KSW1 241018Z 04009KT 01/M05 A3028 RMK A01 T00091053  RH  063%=      5-min Rain = 0
KSW1 241019Z 04009KT 01/M05 A3028 RMK A01 T00091053  RH  063%=      5-min Rain = 0
KSW1 241020Z 04010KT 01/M05 A3028 RMK A01 T00081052  RH  064%=      5-min Rain = 0
KSW1 241021Z 04010KT 01/M05 A3028 RMK A01 T00071051  RH  065%=      5-min Rain = 0
KSW1 241022Z 04010KT 01/M05 A3028 RMK A01 T00061050  RH  066%=      5-min Rain = 0
KSW1 241023Z 04009KT 01/M05 A3028 RMK A01 T00061049  RH  066%=      5-min Rain = 0
KSW1 241024Z 05009KT 01/M05 A3029 RMK A01 T00061049  RH  067%=      5-min Rain = 0
KSW1 241025Z 05009KT 01/M05 A3028 RMK A01 T00051050  RH  067%=      5-min Rain = 0
KSW1 241026Z 05009KT 01/M05 A3028 RMK A01 T00051050  RH  067%=      5-min Rain = 0
KSW1 241027Z 04009KT 01/M05 A3028 RMK A01 T00051050  RH  067%=      5-min Rain = 0
KSW1 241028Z 05009KT 00/M05 A3028 RMK A01 T00041051  RH  066%=      5-min Rain = 0
KSW1 241029Z 04010KT 01/M05 A3028 RMK A01 T00061052  RH  065%=      5-min Rain = 0
KSW1 241030Z 04009KT 01/M05 A3028 RMK A01 T00061053  RH  064%=      5-min Rain = 0
KSW1 241031Z 04009KT 01/M05 A3028 RMK A01 T00071054  RH  064%=      5-min Rain = 0
KSW1 241032Z 04010KT 01/M05 A3028 RMK A01 T00081054  RH  063%=      5-min Rain = 0
KSW1 241033Z 04009KT 01/M06 A3028 RMK A01 T00091055  RH  062%=      5-min Rain = 0
KSW1 241034Z 04008KT 01/M06 A3028 RMK A01 T00101055  RH  062%=      5-min Rain = 0
KSW1 241035Z 04008KT 01/M06 A3028 RMK A01 T00101055  RH  062%=      5-min Rain = 0
KSW1 241036Z 04008KT 01/M06 A3028 RMK A01 T00091055  RH  062%=      5-min Rain = 0
KSW1 241037Z 03008KT 01/M06 A3028 RMK A01 T00081056  RH  063%=      5-min Rain = 0
KSW1 241038Z 03008KT 01/M06 A3028 RMK A01 T00071056  RH  063%=      5-min Rain = 0
KSW1 241039Z 02007KT 01/M06 A3028 RMK A01 T00061055  RH  063%=      5-min Rain = 0
KSW1 241040Z 01006KT 01/M06 A3028 RMK A01 T00061055  RH  064%=      5-min Rain = 0
KSW1 241041Z 02006KT 01/M06 A3028 RMK A01 T00061055  RH  064%=      5-min Rain = 0
KSW1 241042Z 03006KT 01/M06 A3028 RMK A01 T00051056  RH  064%=      5-min Rain = 0
KSW1 241043Z 04008KT 00/M06 A3028 RMK A01 T00041058  RH  063%=      5-min Rain = 0
KSW1 241044Z 04010KT 01/M06 A3028 RMK A01 T00071061  RH  061%=      5-min Rain = 0
KSW1 241045Z 04010KT 01/M06 A3028 RMK A01 T00101062  RH  059%=      5-min Rain = 0
KSW1 241046Z 04011KT 01/M06 A3028 RMK A01 T00111063  RH  058%=      5-min Rain = 0
KSW1 241047Z 05011KT 01/M06 A3028 RMK A01 T00121062  RH  058%=      5-min Rain = 0
KSW1 241048Z 05011KT 01/M06 A3028 RMK A01 T00121061  RH  058%=      5-min Rain = 0
KSW1 241049Z 05012KT 01/M06 A3028 RMK A01 T00111061  RH  059%=      5-min Rain = 0
KSW1 241050Z 05012KT 01/M06 A3028 RMK A01 T00101061  RH  059%=      5-min Rain = 0
KSW1 241051Z 05010KT 01/M06 A3029 RMK A01 T00101062  RH  059%=      5-min Rain = 0
KSW1 241052Z 04010KT 01/M06 A3029 RMK A01 T00091062  RH  059%=      5-min Rain = 0
KSW1 241053Z 04009KT 01/M06 A3029 RMK A01 T00091062  RH  059%=      5-min Rain = 0
KSW1 241054Z 04010KT 01/M06 A3029 RMK A01 T00081063  RH  059%=      5-min Rain = 0
KSW1 241055Z 04011KT 01/M06 A3029 RMK A01 T00081062  RH  059%=      5-min Rain = 0
KSW1 241056Z 04011KT 01/M06 A3028 RMK A01 T00081062  RH  060%=      5-min Rain = 0
KSW1 241057Z 04011KT 01/M06 A3029 RMK A01 T00081061  RH  060%=      5-min Rain = 0
KSW1 241058Z 04010KT 01/M06 A3029 RMK A01 T00071061  RH  061%=      5-min Rain = 0
KSW1 241059Z 04010KT 01/M06 A3029 RMK A01 T00061061  RH  061%=      5-min Rain = 0
KSW1 241100Z 04010KT 01/M06 A3029 RMK A01 T00061060  RH  061%=      5-min Rain = 0
KSW1 241101Z 04010KT 01/M06 A3029 RMK A01 T00051061  RH  061%=      5-min Rain = 0
KSW1 241102Z 05011KT 01/M06 A3029 RMK A01 T00051060  RH  062%=      5-min Rain = 0
KSW1 241103Z 04011KT 01/M06 A3029 RMK A01 T00051060  RH  062%=      5-min Rain = 0
KSW1 241104Z 04011KT 00/M06 A3029 RMK A01 T00041060  RH  062%=      5-min Rain = 0
KSW1 241105Z 05012KT 00/M06 A3029 RMK A01 T00041061  RH  061%=      5-min Rain = 0
KSW1 241106Z 04011KT 01/M06 A3029 RMK A01 T00051062  RH  061%=      5-min Rain = 0
KSW1 241107Z 04011KT 01/M06 A3029 RMK A01 T00061062  RH  061%=      5-min Rain = 0
KSW1 241108Z 04011KT 01/M06 A3029 RMK A01 T00061062  RH  060%=      5-min Rain = 0
KSW1 241109Z 04011KT 01/M06 A3029 RMK A01 T00061063  RH  060%=      5-min Rain = 0
KSW1 241110Z 04011KT 01/M06 A3029 RMK A01 T00061062  RH  060%=      5-min Rain = 0
KSW1 241111Z 04011KT 01/M06 A3029 RMK A01 T00061062  RH  060%=      5-min Rain = 0
KSW1 241112Z 04011KT 01/M06 A3029 RMK A01 T00061062  RH  060%=      5-min Rain = 0
KSW1 241113Z 04011KT 01/M06 A3029 RMK A01 T00061062  RH  060%=      5-min Rain = 0
KSW1 241114Z 04011KT 01/M06 A3029 RMK A01 T00061061  RH  060%=      5-min Rain = 0
KSW1 241115Z 05010KT 01/M06 A3029 RMK A01 T00071060  RH  061%=      5-min Rain = 0
KSW1 241116Z 05010KT 01/M06 A3029 RMK A01 T00051060  RH  062%=      5-min Rain = 0
KSW1 241117Z 05010KT 00/M06 A3029 RMK A01 T00041059  RH  062%=      5-min Rain = 0
KSW1 241118Z 05010KT 00/M06 A3029 RMK A01 T00031059  RH  063%=      5-min Rain = 0
KSW1 241119Z 05010KT 00/M06 A3029 RMK A01 T00031058  RH  064%=      5-min Rain = 0
KSW1 241120Z 05010KT 00/M06 A303 RMK A01 T00031058  RH  064%=      5-min Rain = 0
KSW1 241121Z 05009KT 00/M06 A303 RMK A01 T00021058  RH  064%=      5-min Rain = 0
KSW1 241122Z 05009KT 00/M06 A303 RMK A01 T00011058  RH  064%=      5-min Rain = 0
KSW1 241123Z 05009KT 00/06 A303 RMK A01 T00000-58  RH  065%=      5-min Rain = 0
KSW1 241124Z 05010KT M00/M06 A303 RMK A01 T10011058  RH  065%=      5-min Rain = 0
KSW1 241125Z 05009KT M00/M06 A303 RMK A01 T10011059  RH  065%=      5-min Rain = 0
KSW1 241126Z 05009KT M00/M06 A303 RMK A01 T10021059  RH  065%=      5-min Rain = 0
KSW1 241127Z 06011KT M00/M06 A303 RMK A01 T10021059  RH  065%=      5-min Rain = 0
KSW1 241128Z 05010KT M00/M06 A303 RMK A01 T10021060  RH  065%=      5-min Rain = 0
KSW1 241129Z 05008KT M00/M06 A303 RMK A01 T10021060  RH  065%=      5-min Rain = 0
KSW1 241130Z 05008KT M00/M06 A303 RMK A01 T10021060  RH  065%=      5-min Rain = 0
KSW1 241131Z 06010KT M00/M06 A303 RMK A01 T10031061  RH  065%=      5-min Rain = 0
KSW1 241132Z 06009KT M00/M06 A303 RMK A01 T10031061  RH  065%=      5-min Rain = 0
KSW1 241133Z 05008KT M00/M06 A3031 RMK A01 T10031062  RH  064%=      5-min Rain = 0
KSW1 241134Z 05007KT M00/M06 A3031 RMK A01 T10021062  RH  064%=      5-min Rain = 0
KSW1 241135Z 06007KT M00/M06 A3031 RMK A01 T10021062  RH  064%=      5-min Rain = 0
KSW1 241136Z 06007KT M00/M06 A3031 RMK A01 T10031063  RH  064%=      5-min Rain = 0
KSW1 241137Z 06008KT M00/M06 A3031 RMK A01 T10041063  RH  065%=      5-min Rain = 0
KSW1 241138Z 06008KT M01/M06 A3031 RMK A01 T10051063  RH  065%=      5-min Rain = 0
KSW1 241139Z 06008KT M01/M06 A3031 RMK A01 T10051063  RH  065%=      5-min Rain = 0
KSW1 241140Z 06007KT M01/M06 A3031 RMK A01 T10051063  RH  065%=      5-min Rain = 0
KSW1 241141Z 05008KT M01/M06 A3031 RMK A01 T10051062  RH  065%=      5-min Rain = 0
KSW1 241142Z 05008KT M01/M06 A3031 RMK A01 T10051062  RH  065%=      5-min Rain = 0
KSW1 241143Z 06008KT M01/M06 A3031 RMK A01 T10061062  RH  065%=      5-min Rain = 0
KSW1 241144Z 05008KT M01/M06 A3031 RMK A01 T10061062  RH  066%=      5-min Rain = 0
KSW1 241145Z 05008KT M01/M06 A3031 RMK A01 T10071062  RH  066%=      5-min Rain = 0
KSW1 241146Z 06009KT M01/M06 A3031 RMK A01 T10071062  RH  066%=      5-min Rain = 0
KSW1 241147Z 06008KT M01/M06 A3031 RMK A01 T10071062  RH  066%=      5-min Rain = 0
KSW1 241148Z 06007KT M01/M06 A3031 RMK A01 T10071062  RH  066%=      5-min Rain = 0
KSW1 241149Z 07006KT M01/M06 A3032 RMK A01 T10071062  RH  066%=      5-min Rain = 0
KSW1 241150Z 07008KT M01/M06 A3032 RMK A01 T10071062  RH  066%=      5-min Rain = 0
KSW1 241151Z 07007KT M01/M06 A3032 RMK A01 T10071061  RH  066%=      5-min Rain = 0
KSW1 241152Z 07006KT M01/M06 A3032 RMK A01 T10051061  RH  066%=      5-min Rain = 0
KSW1 241153Z 06005KT M01/M06 A3032 RMK A01 T10051062  RH  066%=      5-min Rain = 0
KSW1 241154Z 07005KT M01/M06 A3032 RMK A01 T10051062  RH  065%=      5-min Rain = 0
KSW1 241155Z 07005KT M01/M06 A3032 RMK A01 T10051063  RH  065%=      5-min Rain = 0
KSW1 241156Z 07005KT M01/M06 A3032 RMK A01 T10071063  RH  065%=      5-min Rain = 0
KSW1 241157Z 06004KT M01/M06 A3032 RMK A01 T10071064  RH  066%=      5-min Rain = 0
KSW1 241158Z 06003KT M01/M06 A3032 RMK A01 T10081064  RH  066%=      5-min Rain = 0
KSW1 241159Z 06004KT M01/M06 A3032 RMK A01 T10081064  RH  066%=      5-min Rain = 0
KSW1 241200Z 07003KT M01/M06 A3032 RMK A01 T10081064  RH  066%=      5-min Rain = 0
KSW1 241201Z 07004KT M01/M07 A3032 RMK A01 T10091065  RH  066%=      5-min Rain = 0
KSW1 241202Z 07005KT M01/M07 A3032 RMK A01 T10101065  RH  066%=      5-min Rain = 0
KSW1 241203Z 06004KT M01/M07 A3032 RMK A01 T10101065  RH  066%=      5-min Rain = 0
KSW1 241204Z 07004KT M01/M07 A3032 RMK A01 T10101065  RH  066%=      5-min Rain = 0
KSW1 241205Z 07005KT M01/M07 A3032 RMK A01 T10101066  RH  066%=      5-min Rain = 0
KSW1 241206Z 06005KT M01/M07 A3032 RMK A01 T10111066  RH  066%=      5-min Rain = 0
KSW1 241207Z 06005KT M01/M07 A3032 RMK A01 T10121066  RH  066%=      5-min Rain = 0
KSW1 241208Z 06005KT M01/M07 A3032 RMK A01 T10131067  RH  067%=      5-min Rain = 0
KSW1 241209Z 06005KT M01/M07 A3032 RMK A01 T10131067  RH  067%=      5-min Rain = 0
KSW1 241210Z 06006KT M01/M07 A3032 RMK A01 T10131067  RH  067%=      5-min Rain = 0
KSW1 241211Z 06006KT M01/M07 A3032 RMK A01 T10141067  RH  067%=      5-min Rain = 0
KSW1 241212Z 06006KT M02/M07 A3032 RMK A01 T10151067  RH  067%=      5-min Rain = 0
KSW1 241213Z 06006KT M02/M07 A3032 RMK A01 T10151067  RH  068%=      5-min Rain = 0
KSW1 241214Z 06005KT M02/M07 A3032 RMK A01 T10151067  RH  068%=      5-min Rain = 0
KSW1 241215Z 05005KT M02/M07 A3032 RMK A01 T10151067  RH  068%=      5-min Rain = 0
KSW1 241216Z 06006KT M02/M07 A3032 RMK A01 T10151067  RH  068%=      5-min Rain = 0
KSW1 241217Z 06006KT M02/M07 A3032 RMK A01 T10161067  RH  068%=      5-min Rain = 0
KSW1 241218Z 06007KT M02/M07 A3032 RMK A01 T10161067  RH  068%=      5-min Rain = 0
KSW1 241219Z 06007KT M02/M07 A3032 RMK A01 T10161066  RH  069%=      5-min Rain = 0
KSW1 241220Z 06006KT M02/M07 A3032 RMK A01 T10161066  RH  069%=      5-min Rain = 0
KSW1 241221Z 06007KT M02/M07 A3032 RMK A01 T10151066  RH  068%=      5-min Rain = 0
KSW1 241222Z 06007KT M02/M07 A3032 RMK A01 T10151066  RH  068%=      5-min Rain = 0
KSW1 241223Z 06007KT M02/M07 A3032 RMK A01 T10151066  RH  068%=      5-min Rain = 0
KSW1 241224Z 06007KT M02/M07 A3032 RMK A01 T10151066  RH  068%=      5-min Rain = 0
KSW1 241225Z 06008KT M01/M07 A3032 RMK A01 T10141065  RH  068%=      5-min Rain = 0
KSW1 241226Z 06008KT M01/M07 A3032 RMK A01 T10141065  RH  068%=      5-min Rain = 0
KSW1 241227Z 05009KT M01/M07 A3032 RMK A01 T10131065  RH  068%=      5-min Rain = 0
KSW1 241228Z 05008KT M01/M07 A3032 RMK A01 T10121065  RH  068%=      5-min Rain = 0
KSW1 241229Z 05008KT M01/M07 A3032 RMK A01 T10121065  RH  067%=      5-min Rain = 0
KSW1 241230Z 06007KT M01/M07 A3032 RMK A01 T10111065  RH  067%=      5-min Rain = 0
KSW1 241231Z 06008KT M01/M07 A3032 RMK A01 T10121065  RH  067%=      5-min Rain = 0
KSW1 241232Z 06009KT M01/M07 A3032 RMK A01 T10121065  RH  067%=      5-min Rain = 0
KSW1 241233Z 06009KT M01/M07 A3032 RMK A01 T10121065  RH  067%=      5-min Rain = 0
KSW1 241234Z 06008KT M01/M07 A3032 RMK A01 T10111065  RH  067%=      5-min Rain = 0
KSW1 241235Z 06008KT M01/M07 A3032 RMK A01 T10111065  RH  067%=      5-min Rain = 0
KSW1 241236Z 06008KT M01/M07 A3032 RMK A01 T10111065  RH  067%=      5-min Rain = 0
KSW1 241237Z 06008KT M01/M07 A3032 RMK A01 T10111065  RH  067%=      5-min Rain = 0
KSW1 241238Z 06009KT M01/M07 A3032 RMK A01 T10111065  RH  067%=      5-min Rain = 0
KSW1 241239Z 05009KT M01/M07 A3032 RMK A01 T10121065  RH  067%=      5-min Rain = 0
KSW1 241240Z 06009KT M01/M06 A3032 RMK A01 T10121064  RH  068%=      5-min Rain = 0
KSW1 241241Z 05009KT M01/M06 A3032 RMK A01 T10121064  RH  068%=      5-min Rain = 0
KSW1 241242Z 06009KT M01/M06 A3032 RMK A01 T10121064  RH  068%=      5-min Rain = 0
KSW1 241243Z 05009KT M01/M07 A3032 RMK A01 T10121065  RH  068%=      5-min Rain = 0
KSW1 241244Z 05009KT M01/M06 A3032 RMK A01 T10121064  RH  067%=      5-min Rain = 0
KSW1 241245Z 05009KT M01/M06 A3032 RMK A01 T10111064  RH  067%=      5-min Rain = 0
KSW1 241246Z 05009KT M01/M06 A3032 RMK A01 T10121064  RH  067%=      5-min Rain = 0
KSW1 241247Z 05009KT M01/M06 A3032 RMK A01 T10111064  RH  067%=      5-min Rain = 0
KSW1 241248Z 06009KT M01/M07 A3032 RMK A01 T10111065  RH  067%=      5-min Rain = 0
KSW1 241249Z 05009KT M01/M07 A3032 RMK A01 T10111065  RH  067%=      5-min Rain = 0
KSW1 241250Z 05010KT M01/M07 A3033 RMK A01 T10111065  RH  067%=      5-min Rain = 0
KSW1 241251Z 05009KT M01/M07 A3033 RMK A01 T10111065  RH  067%=      5-min Rain = 0
KSW1 241252Z 05009KT M01/M07 A3032 RMK A01 T10111065  RH  067%=      5-min Rain = 0
KSW1 241253Z 05008KT M01/M07 A3032 RMK A01 T10111065  RH  066%=      5-min Rain = 0
KSW1 241254Z 05008KT M01/M07 A3032 RMK A01 T10111066  RH  066%=      5-min Rain = 0
KSW1 241255Z 05008KT M01/M07 A3032 RMK A01 T10101066  RH  066%=      5-min Rain = 0
KSW1 241256Z 05009KT M01/M07 A3032 RMK A01 T10101066  RH  066%=      5-min Rain = 0
KSW1 241257Z 05008KT M01/M07 A3033 RMK A01 T10101066  RH  066%=      5-min Rain = 0
KSW1 241258Z 05008KT M01/M07 A3033 RMK A01 T10101066  RH  066%=      5-min Rain = 0
KSW1 241259Z 05007KT M01/M07 A3033 RMK A01 T10091066  RH  065%=      5-min Rain = 0
KSW1 241300Z 05006KT M01/M07 A3033 RMK A01 T10101066  RH  065%=      5-min Rain = 0
KSW1 241301Z 05007KT M01/M07 A3033 RMK A01 T10111067  RH  066%=      5-min Rain = 0
KSW1 241302Z 05008KT M01/M07 A3033 RMK A01 T10121067  RH  066%=      5-min Rain = 0
KSW1 241303Z 05008KT M01/M07 A3033 RMK A01 T10121067  RH  066%=      5-min Rain = 0
KSW1 241304Z 05008KT M01/M07 A3033 RMK A01 T10121067  RH  066%=      5-min Rain = 0
KSW1 241305Z 05008KT M01/M07 A3033 RMK A01 T10121067  RH  066%=      5-min Rain = 0
KSW1 241306Z 04009KT M01/M07 A3033 RMK A01 T10121067  RH  066%=      5-min Rain = 0
KSW1 241307Z 04009KT M01/M07 A3033 RMK A01 T10121068  RH  066%=      5-min Rain = 0
KSW1 241308Z 05009KT M01/M07 A3033 RMK A01 T10121067  RH  066%=      5-min Rain = 0
KSW1 241309Z 05008KT M01/M07 A3033 RMK A01 T10121067  RH  066%=      5-min Rain = 0
KSW1 241310Z 05008KT M01/M07 A3033 RMK A01 T10121067  RH  066%=      5-min Rain = 0
KSW1 241311Z 05008KT M01/M07 A3033 RMK A01 T10121067  RH  066%=      5-min Rain = 0
KSW1 241312Z 05009KT M01/M07 A3033 RMK A01 T10121067  RH  066%=      5-min Rain = 0
KSW1 241313Z 05009KT M01/M07 A3033 RMK A01 T10121067  RH  066%=      5-min Rain = 0
KSW1 241314Z 05010KT M01/M07 A3033 RMK A01 T10121067  RH  066%=      5-min Rain = 0
KSW1 241315Z 05010KT M01/M07 A3033 RMK A01 T10121067  RH  066%=      5-min Rain = 0
KSW1 241316Z 05010KT M01/M07 A3033 RMK A01 T10121067  RH  066%=      5-min Rain = 0
KSW1 241317Z 05010KT M01/M07 A3033 RMK A01 T10121067  RH  066%=      5-min Rain = 0
KSW1 241318Z 05009KT M01/M07 A3033 RMK A01 T10121067  RH  066%=      5-min Rain = 0
KSW1 241319Z 05009KT M01/M07 A3033 RMK A01 T10111067  RH  066%=      5-min Rain = 0
KSW1 241320Z 05009KT M01/M07 A3033 RMK A01 T10111067  RH  066%=      5-min Rain = 0
KSW1 241321Z 05011KT M01/M07 A3033 RMK A01 T10111066  RH  066%=      5-min Rain = 0
KSW1 241322Z 05010KT M01/M07 A3033 RMK A01 T10111067  RH  066%=      5-min Rain = 0
KSW1 241323Z 05011KT M01/M07 A3033 RMK A01 T10111066  RH  066%=      5-min Rain = 0
KSW1 241324Z 05010KT M01/M07 A3033 RMK A01 T10111067  RH  066%=      5-min Rain = 0
KSW1 241325Z 05010KT M01/M07 A3033 RMK A01 T10101067  RH  066%=      5-min Rain = 0
KSW1 241326Z 05010KT M01/M07 A3033 RMK A01 T10101067  RH  065%=      5-min Rain = 0
KSW1 241327Z 05010KT M01/M07 A3033 RMK A01 T10101067  RH  065%=      5-min Rain = 0
KSW1 241328Z 05009KT M01/M07 A3033 RMK A01 T10101066  RH  066%=      5-min Rain = 0
KSW1 241329Z 05009KT M01/M07 A3033 RMK A01 T10101066  RH  066%=      5-min Rain = 0
KSW1 241330Z 05009KT M01/M07 A3033 RMK A01 T10111066  RH  066%=      5-min Rain = 0
KSW1 241331Z 05010KT M01/M07 A3033 RMK A01 T10111066  RH  066%=      5-min Rain = 0
KSW1 241332Z 05009KT M01/M07 A3033 RMK A01 T10111066  RH  066%=      5-min Rain = 0
KSW1 241333Z 05010KT M01/M07 A3033 RMK A01 T10101066  RH  066%=      5-min Rain = 0
KSW1 241334Z 05010KT M01/M07 A3033 RMK A01 T10101066  RH  066%=      5-min Rain = 0
KSW1 241335Z 05009KT M01/M07 A3033 RMK A01 T10091066  RH  065%=      5-min Rain = 0
KSW1 241336Z 06008KT M01/M07 A3033 RMK A01 T10081066  RH  065%=      5-min Rain = 0
KSW1 241337Z 06009KT M01/M07 A3033 RMK A01 T10081065  RH  065%=      5-min Rain = 0
KSW1 241338Z 05009KT M01/M07 A3033 RMK A01 T10091065  RH  065%=      5-min Rain = 0
KSW1 241339Z 06009KT M01/M07 A3034 RMK A01 T10081065  RH  065%=      5-min Rain = 0
KSW1 241340Z 06009KT M01/M07 A3034 RMK A01 T10091065  RH  066%=      5-min Rain = 0
KSW1 241341Z 06008KT M01/M07 A3034 RMK A01 T10091065  RH  066%=      5-min Rain = 0
KSW1 241342Z 06007KT M01/M07 A3034 RMK A01 T10091065  RH  066%=      5-min Rain = 0
KSW1 241343Z 06007KT M01/M07 A3034 RMK A01 T10091065  RH  066%=      5-min Rain = 0
KSW1 241344Z 06007KT M01/M07 A3034 RMK A01 T10091065  RH  066%=      5-min Rain = 0
KSW1 241345Z 06007KT M01/M06 A3034 RMK A01 T10091064  RH  066%=      5-min Rain = 0
KSW1 241346Z 06007KT M01/M07 A3034 RMK A01 T10091065  RH  066%=      5-min Rain = 0
KSW1 241347Z 07007KT M01/M07 A3034 RMK A01 T10081065  RH  065%=      5-min Rain = 0
KSW1 241348Z 06006KT M01/M07 A3034 RMK A01 T10071065  RH  065%=      5-min Rain = 0
KSW1 241349Z 06005KT M01/M06 A3034 RMK A01 T10061064  RH  065%=      5-min Rain = 0
KSW1 241350Z 07005KT M01/M06 A3034 RMK A01 T10051064  RH  064%=      5-min Rain = 0
KSW1 241351Z 06005KT M01/M07 A3034 RMK A01 T10051065  RH  064%=      5-min Rain = 0
KSW1 241352Z 06005KT M00/M06 A3034 RMK A01 T10041064  RH  064%=      5-min Rain = 0
KSW1 241353Z 06005KT M00/M06 A3034 RMK A01 T10031064  RH  063%=      5-min Rain = 0
KSW1 241354Z 05007KT M00/M06 A3034 RMK A01 T10021064  RH  063%=      5-min Rain = 0
KSW1 241355Z 05006KT M00/M07 A3034 RMK A01 T10021065  RH  062%=      5-min Rain = 0
KSW1 241356Z 05008KT M00/M07 A3034 RMK A01 T10011065  RH  062%=      5-min Rain = 0
KSW1 241357Z 05007KT M00/M07 A3034 RMK A01 T10011065  RH  062%=      5-min Rain = 0
KSW1 241358Z 05006KT 00/06 A3034 RMK A01 T00-00-64  RH  062%=      5-min Rain = 0
KSW1 241359Z 05006KT 00/06 A3034 RMK A01 T00000-64  RH  062%=      5-min Rain = 0
KSW1 241400Z 05007KT 00/M06 A3034 RMK A01 T00011064  RH  062%=      5-min Rain = 0
KSW1 241401Z 05008KT 00/M06 A3034 RMK A01 T00021064  RH  061%=      5-min Rain = 0
KSW1 241402Z 05008KT 00/M07 A3034 RMK A01 T00021065  RH  061%=      5-min Rain = 0
KSW1 241403Z 05008KT 00/M07 A3034 RMK A01 T00031065  RH  060%=      5-min Rain = 0
KSW1 241404Z 05007KT 00/M07 A3034 RMK A01 T00031065  RH  060%=      5-min Rain = 0
KSW1 241405Z 05007KT 00/M06 A3034 RMK A01 T00041063  RH  061%=      5-min Rain = 0
KSW1 241406Z 05007KT 01/M06 A3034 RMK A01 T00051063  RH  060%=      5-min Rain = 0
KSW1 241407Z 05007KT 01/M06 A3034 RMK A01 T00061063  RH  060%=      5-min Rain = 0
KSW1 241408Z 05007KT 01/M06 A3034 RMK A01 T00071061  RH  060%=      5-min Rain = 0
KSW1 241409Z 05007KT 01/M06 A3034 RMK A01 T00081062  RH  059%=      5-min Rain = 0
KSW1 241410Z 05007KT 01/M06 A3035 RMK A01 T00081063  RH  059%=      5-min Rain = 0
KSW1 241411Z 05007KT 01/M06 A3035 RMK A01 T00081064  RH  058%=      5-min Rain = 0
KSW1 241412Z 05006KT 01/M06 A3035 RMK A01 T00091063  RH  059%=      5-min Rain = 0
KSW1 241413Z 05006KT 01/M06 A3035 RMK A01 T00101062  RH  059%=      5-min Rain = 0
KSW1 241414Z 06007KT 01/M06 A3035 RMK A01 T00101062  RH  059%=      5-min Rain = 0
KSW1 241415Z 06007KT 01/M06 A3035 RMK A01 T00111062  RH  058%=      5-min Rain = 0
KSW1 241416Z 06006KT 01/M06 A3035 RMK A01 T00121064  RH  057%=      5-min Rain = 0
KSW1 241417Z 06005KT 01/M06 A3035 RMK A01 T00111063  RH  058%=      5-min Rain = 0
KSW1 241418Z 05008KT 01/M06 A3035 RMK A01 T00111063  RH  058%=      5-min Rain = 0
KSW1 241419Z 05007KT 01/M07 A3035 RMK A01 T00111065  RH  057%=      5-min Rain = 0
KSW1 241420Z 05006KT 01/M06 A3035 RMK A01 T00111063  RH  058%=      5-min Rain = 0
KSW1 241421Z 05006KT 01/M06 A3035 RMK A01 T00121061  RH  058%=      5-min Rain = 0
KSW1 241422Z 05006KT 01/M06 A3035 RMK A01 T00131063  RH  057%=      5-min Rain = 0
KSW1 241423Z 06008KT 01/M06 A3035 RMK A01 T00141062  RH  057%=      5-min Rain = 0
KSW1 241424Z 05008KT 01/M06 A3035 RMK A01 T00141063  RH  057%=      5-min Rain = 0
KSW1 241425Z 05007KT 01/M06 A3035 RMK A01 T00131063  RH  057%=      5-min Rain = 0
KSW1 241426Z 05006KT 01/M06 A3035 RMK A01 T00141063  RH  057%=      5-min Rain = 0
KSW1 241427Z 05007KT 01/M06 A3035 RMK A01 T00141062  RH  057%=      5-min Rain = 0
KSW1 241428Z 05007KT 02/M06 A3035 RMK A01 T00151062  RH  057%=      5-min Rain = 0
KSW1 241429Z 05009KT 02/M06 A3035 RMK A01 T00161061  RH  057%=      5-min Rain = 0
KSW1 241430Z 05008KT 02/M06 A3035 RMK A01 T00171062  RH  056%=      5-min Rain = 0
KSW1 241431Z 05009KT 02/M06 A3035 RMK A01 T00181062  RH  055%=      5-min Rain = 0
KSW1 241432Z 05009KT 02/M06 A3035 RMK A01 T00181062  RH  055%=      5-min Rain = 0
KSW1 241433Z 05008KT 02/M06 A3035 RMK A01 T00191062  RH  055%=      5-min Rain = 0
KSW1 241434Z 05010KT 02/M06 A3035 RMK A01 T00201062  RH  055%=      5-min Rain = 0
KSW1 241435Z 05009KT 02/M06 A3035 RMK A01 T00201063  RH  054%=      5-min Rain = 0
KSW1 241436Z 05011KT 02/M06 A3035 RMK A01 T00211061  RH  055%=      5-min Rain = 0
KSW1 241437Z 05010KT 02/M06 A3036 RMK A01 T00211063  RH  054%=      5-min Rain = 0
KSW1 241438Z 05010KT 02/M06 A3035 RMK A01 T00211063  RH  054%=      5-min Rain = 0
KSW1 241439Z 05011KT 02/M06 A3036 RMK A01 T00221063  RH  053%=      5-min Rain = 0
KSW1 241440Z 05011KT 02/M06 A3035 RMK A01 T00221063  RH  053%=      5-min Rain = 0
KSW1 241441Z 05011KT 02/M06 A3036 RMK A01 T00221064  RH  053%=      5-min Rain = 0
KSW1 241442Z 05008KT 02/M06 A3035 RMK A01 T00221064  RH  053%=      5-min Rain = 0
KSW1 241443Z 06007KT 02/M06 A3035 RMK A01 T00241059  RH  054%=      5-min Rain = 0
KSW1 241444Z 06010KT 03/M06 A3035 RMK A01 T00261061  RH  053%=      5-min Rain = 0
KSW1 241445Z 06010KT 03/M06 A3036 RMK A01 T00271060  RH  053%=      5-min Rain = 0
KSW1 241446Z 06012KT 03/M06 A3036 RMK A01 T00271063  RH  052%=      5-min Rain = 0
KSW1 241447Z 06011KT 03/M06 A3036 RMK A01 T00271063  RH  051%=      5-min Rain = 0
KSW1 241448Z 06012KT 03/M06 A3036 RMK A01 T00271064  RH  051%=      5-min Rain = 0
KSW1 241449Z 05009G14KT 03/M06 A3036 RMK A01 T00271063  RH  051%=      5-min Rain = 0
KSW1 241450Z 05012KT 03/M06 A3036 RMK A01 T00291062  RH  051%=      5-min Rain = 0
KSW1 241451Z 05013KT 03/M06 A3036 RMK A01 T00291063  RH  051%=      5-min Rain = 0
KSW1 241452Z 06011KT 03/M06 A3036 RMK A01 T00291064  RH  051%=      5-min Rain = 0
KSW1 241453Z 06012KT 03/M06 A3036 RMK A01 T00291063  RH  051%=      5-min Rain = 0
KSW1 241454Z 06013KT 03/M06 A3036 RMK A01 T00291063  RH  051%=      5-min Rain = 0
KSW1 241455Z 06013KT 03/M06 A3036 RMK A01 T00301063  RH  051%=      5-min Rain = 0
KSW1 241456Z 06012KT 03/M06 A3036 RMK A01 T00311062  RH  050%=      5-min Rain = 0
KSW1 241457Z 05012KT 03/M06 A3036 RMK A01 T00311062  RH  050%=      5-min Rain = 0
KSW1 241458Z 05011KT 03/M06 A3036 RMK A01 T00321062  RH  050%=      5-min Rain = 0
KSW1 241459Z 05012KT 03/M06 A3036 RMK A01 T00331062  RH  050%=      5-min Rain = 0
KSW1 241500Z 06010KT 03/M06 A3036 RMK A01 T00331063  RH  049%=      5-min Rain = 0
KSW1 241501Z 05009KT 04/M06 A3036 RMK A01 T00351059  RH  050%=      5-min Rain = 0
KSW1 241502Z 05011KT 04/M06 A3036 RMK A01 T00371059  RH  050%=      5-min Rain = 0
KSW1 241503Z 06011KT 04/M06 A3036 RMK A01 T00371061  RH  049%=      5-min Rain = 0
KSW1 241504Z 06009KT 04/M06 A3036 RMK A01 T00371059  RH  049%=      5-min Rain = 0
KSW1 241505Z 06008KT 04/M06 A3036 RMK A01 T00401056  RH  050%=      5-min Rain = 0
KSW1 241506Z 06010KT 04/M06 A3037 RMK A01 T00431055  RH  049%=      5-min Rain = 0
KSW1 241507Z 05011KT 04/M06 A3037 RMK A01 T00441058  RH  047%=      5-min Rain = 0
KSW1 241508Z 05010KT 04/M06 A3037 RMK A01 T00421061  RH  047%=      5-min Rain = 0
KSW1 241509Z 05010KT 04/M06 A3037 RMK A01 T00411061  RH  048%=      5-min Rain = 0
KSW1 241510Z 06011KT 04/M06 A3037 RMK A01 T00411058  RH  048%=      5-min Rain = 0
KSW1 241511Z 05011KT 04/M06 A3037 RMK A01 T00431058  RH  048%=      5-min Rain = 0
KSW1 241512Z 05011KT 04/M06 A3037 RMK A01 T00431060  RH  047%=      5-min Rain = 0
KSW1 241513Z 05011KT 04/M06 A3037 RMK A01 T00431060  RH  047%=      5-min Rain = 0
KSW1 241514Z 06010KT 04/M06 A3037 RMK A01 T00421060  RH  047%=      5-min Rain = 0
KSW1 241515Z 05010KT 04/M06 A3037 RMK A01 T00441059  RH  047%=      5-min Rain = 0
KSW1 241516Z 05009G14KT 04/M06 A3037 RMK A01 T00441059  RH  047%=      5-min Rain = 0
KSW1 241517Z 05011KT 05/M06 A3037 RMK A01 T00451060  RH  046%=      5-min Rain = 0
KSW1 241518Z 05011KT 04/M06 A3037 RMK A01 T00431061  RH  047%=      5-min Rain = 0
KSW1 241519Z 05010KT 04/M06 A3037 RMK A01 T00421061  RH  047%=      5-min Rain = 0
KSW1 241520Z 05012KT 04/M06 A3037 RMK A01 T00431060  RH  047%=      5-min Rain = 0
KSW1 241521Z 05011KT 04/M06 A3037 RMK A01 T00431060  RH  047%=      5-min Rain = 0
KSW1 241522Z 05012KT 05/M06 A3037 RMK A01 T00451059  RH  047%=      5-min Rain = 0
KSW1 241523Z 06011KT 05/M06 A3037 RMK A01 T00451062  RH  046%=      5-min Rain = 0
KSW1 241524Z 06011KT 04/M06 A3037 RMK A01 T00441062  RH  046%=      5-min Rain = 0
KSW1 241525Z 06012KT 04/M06 A3037 RMK A01 T00441062  RH  046%=      5-min Rain = 0
KSW1 241526Z 06012KT 04/M06 A3037 RMK A01 T00441063  RH  046%=      5-min Rain = 0
KSW1 241527Z 05011KT 04/M06 A3038 RMK A01 T00431062  RH  046%=      5-min Rain = 0
KSW1 241528Z 06010KT 04/M06 A3038 RMK A01 T00441061  RH  047%=      5-min Rain = 0
KSW1 241529Z 06010KT 05/M06 A3038 RMK A01 T00461060  RH  046%=      5-min Rain = 0
KSW1 241530Z 05010KT 05/M06 A3038 RMK A01 T00471060  RH  046%=      5-min Rain = 0
KSW1 241531Z 05010KT 05/M06 A3038 RMK A01 T00481062  RH  045%=      5-min Rain = 0
KSW1 241532Z 06007KT 05/M06 A3038 RMK A01 T00471059  RH  046%=      5-min Rain = 0
KSW1 241533Z 06008KT 05/M06 A3038 RMK A01 T00501058  RH  045%=      5-min Rain = 0
KSW1 241534Z 06010KT 05/M06 A3038 RMK A01 T00511061  RH  044%=      5-min Rain = 0
KSW1 241535Z 05008KT 05/M06 A3038 RMK A01 T00501062  RH  044%=      5-min Rain = 0
KSW1 241536Z 05007KT 05/M06 A3038 RMK A01 T00491061  RH  045%=      5-min Rain = 0
KSW1 241537Z 06008KT 05/M06 A3038 RMK A01 T00491061  RH  045%=      5-min Rain = 0
KSW1 241538Z 06010KT 05/M06 A3038 RMK A01 T00501061  RH  044%=      5-min Rain = 0
KSW1 241539Z 06010KT 05/M06 A3038 RMK A01 T00501061  RH  044%=      5-min Rain = 0
KSW1 241540Z 06007KT 05/M06 A3038 RMK A01 T00501061  RH  045%=      5-min Rain = 0
KSW1 241541Z 06008KT 05/M06 A3038 RMK A01 T00511060  RH  045%=      5-min Rain = 0
KSW1 241542Z 05010KT 05/M06 A3038 RMK A01 T00511059  RH  045%=      5-min Rain = 0
KSW1 241543Z 05009KT 05/M06 A3038 RMK A01 T00521060  RH  044%=      5-min Rain = 0
KSW1 241544Z 05009KT 05/M06 A3038 RMK A01 T00511061  RH  044%=      5-min Rain = 0
KSW1 241545Z 05008KT 05/M06 A3038 RMK A01 T00521058  RH  045%=      5-min Rain = 0
KSW1 241546Z 06009KT 05/M06 A3038 RMK A01 T00531057  RH  045%=      5-min Rain = 0
KSW1 241547Z 06008KT 06/M06 A3038 RMK A01 T00551055  RH  045%=      5-min Rain = 0
KSW1 241548Z 05007KT 06/M06 A3038 RMK A01 T00561056  RH  044%=      5-min Rain = 0
KSW1 241549Z 07008KT 06/M05 A3038 RMK A01 T00581053  RH  045%=      5-min Rain = 0
KSW1 241550Z 07009KT 06/M06 A3039 RMK A01 T00611056  RH  043%=      5-min Rain = 0
KSW1 241551Z 07007KT 06/M06 A3038 RMK A01 T00591056  RH  043%=      5-min Rain = 0
KSW1 241552Z 07009KT 06/M06 A3039 RMK A01 T00591058  RH  043%=      5-min Rain = 0
KSW1 241553Z 08010KT 06/M06 A3039 RMK A01 T00601058  RH  043%=      5-min Rain = 0
KSW1 241554Z 07008KT 06/M06 A3039 RMK A01 T00611058  RH  042%=      5-min Rain = 0
KSW1 241555Z 07008KT 06/M06 A3039 RMK A01 T00621059  RH  042%=      5-min Rain = 0
KSW1 241556Z 08008KT 06/M06 A3039 RMK A01 T00601062  RH  041%=      5-min Rain = 0
KSW1 241557Z 08009KT 06/M06 A3039 RMK A01 T00601060  RH  042%=      5-min Rain = 0
KSW1 241558Z 09010KT 06/M06 A3039 RMK A01 T00621059  RH  042%=      5-min Rain = 0
KSW1 241559Z 08011KT 06/M06 A3039 RMK A01 T00641062  RH  040%=      5-min Rain = 0
KSW1 241600Z 08011KT 06/M06 A3039 RMK A01 T00631063  RH  040%=      5-min Rain = 0
KSW1 241601Z 08009KT 06/M06 A3039 RMK A01 T00621063  RH  040%=      5-min Rain = 0
KSW1 241602Z 07009KT 06/M06 A3039 RMK A01 T00611062  RH  041%=      5-min Rain = 0
KSW1 241603Z 08009KT 06/M06 A3039 RMK A01 T00641059  RH  041%=      5-min Rain = 0
KSW1 241604Z 09010KT 07/M06 A3039 RMK A01 T00671058  RH  040%=      5-min Rain = 0
KSW1 241605Z 09009KT 07/M06 A3039 RMK A01 T00681062  RH  039%=      5-min Rain = 0
KSW1 241606Z 09010KT 07/M06 A3039 RMK A01 T00651062  RH  040%=      5-min Rain = 0
KSW1 241607Z 10013KT 07/M06 A3039 RMK A01 T00651063  RH  039%=      5-min Rain = 0
KSW1 241608Z 09010KT 07/M07 A3039 RMK A01 T00651066  RH  038%=      5-min Rain = 0
KSW1 241609Z 10010KT 07/M07 A3039 RMK A01 T00651066  RH  039%=      5-min Rain = 0
KSW1 241610Z 10008KT 07/M06 A3039 RMK A01 T00651063  RH  039%=      5-min Rain = 0
KSW1 241611Z 10007KT 07/M06 A3039 RMK A01 T00681059  RH  040%=      5-min Rain = 0
KSW1 241612Z 08006KT 07/M06 A3039 RMK A01 T00711058  RH  040%=      5-min Rain = 0
KSW1 241613Z 08008KT 07/M06 A3039 RMK A01 T00721061  RH  038%=      5-min Rain = 0
KSW1 241614Z 08008KT 07/M06 A3039 RMK A01 T00721060  RH  039%=      5-min Rain = 0
KSW1 241615Z 08007KT 07/M06 A3039 RMK A01 T00721056  RH  040%=      5-min Rain = 0
KSW1 241616Z 07006KT 07/M06 A3039 RMK A01 T00741056  RH  039%=      5-min Rain = 0
KSW1 241617Z 10003KT 07/M06 A3039 RMK A01 T00741055  RH  040%=      5-min Rain = 0
KSW1 241618Z 08006KT 08/M06 A3039 RMK A01 T00751056  RH  039%=      5-min Rain = 0
KSW1 241619Z 10008KT 08/M06 A3039 RMK A01 T00771058  RH  038%=      5-min Rain = 0
KSW1 241620Z 12006KT 07/M07 A3039 RMK A01 T00731067  RH  036%=      5-min Rain = 0
KSW1 241621Z 11005KT 07/M07 A3039 RMK A01 T00691066  RH  037%=      5-min Rain = 0
KSW1 241622Z 09006KT 07/M06 A3039 RMK A01 T00701063  RH  038%=      5-min Rain = 0
KSW1 241623Z 08006KT 07/M06 A3039 RMK A01 T00741059  RH  038%=      5-min Rain = 0
KSW1 241624Z 11006KT 08/M06 A3039 RMK A01 T00781058  RH  038%=      5-min Rain = 0
KSW1 241625Z 09010KT 08/M06 A3039 RMK A01 T00811060  RH  036%=      5-min Rain = 0
KSW1 241626Z 09008KT 08/M07 A3039 RMK A01 T00781065  RH  036%=      5-min Rain = 0
KSW1 241627Z 10005KT 08/M06 A3039 RMK A01 T00761063  RH  037%=      5-min Rain = 0
KSW1 241628Z 11009KT 08/M06 A3039 RMK A01 T00771061  RH  037%=      5-min Rain = 0
KSW1 241629Z 11007KT 08/M07 A3039 RMK A01 T00771067  RH  035%=      5-min Rain = 0
KSW1 241630Z 10007KT 07/M06 A3039 RMK A01 T00741063  RH  037%=      5-min Rain = 0
KSW1 241631Z 10005KT 08/M06 A3039 RMK A01 T00771060  RH  037%=      5-min Rain = 0
KSW1 241632Z 09007KT 08/M06 A3039 RMK A01 T00811056  RH  037%=      5-min Rain = 0
KSW1 241633Z 09006KT 08/M06 A3039 RMK A01 T00841059  RH  036%=      5-min Rain = 0
KSW1 241634Z 10006KT 08/M06 A3039 RMK A01 T00811063  RH  035%=      5-min Rain = 0
KSW1 241635Z 10005KT 08/M06 A3039 RMK A01 T00781064  RH  036%=      5-min Rain = 0
KSW1 241636Z 12004KT 08/M06 A3039 RMK A01 T00761062  RH  037%=      5-min Rain = 0
KSW1 241637Z 10005KT 08/M06 A3039 RMK A01 T00771060  RH  037%=      5-min Rain = 0
KSW1 241638Z 08008KT 08/M06 A3039 RMK A01 T00821055  RH  037%=      5-min Rain = 0
KSW1 241639Z 08007KT 09/M06 A3039 RMK A01 T00861061  RH  035%=      5-min Rain = 0
KSW1 241640Z 08006KT 09/M06 A3039 RMK A01 T00851063  RH  034%=      5-min Rain = 0
KSW1 241641Z 09005KT 09/M06 A3039 RMK A01 T00851062  RH  035%=      5-min Rain = 0
KSW1 241642Z 08006KT 09/M06 A3039 RMK A01 T00851063  RH  034%=      5-min Rain = 0
KSW1 241643Z 09009KT 08/M06 A3039 RMK A01 T00841064  RH  035%=      5-min Rain = 0
KSW1 241644Z 09007KT 08/M07 A3039 RMK A01 T00831065  RH  034%=      5-min Rain = 0
KSW1 241645Z 09007KT 08/M06 A3039 RMK A01 T00821063  RH  035%=      5-min Rain = 0
KSW1 241646Z 09007KT 08/M07 A3039 RMK A01 T00841065  RH  034%=      5-min Rain = 0
KSW1 241647Z 08004KT 08/M06 A3039 RMK A01 T00831064  RH  035%=      5-min Rain = 0
KSW1 241648Z 11004KT 09/M06 A3039 RMK A01 T00851062  RH  035%=      5-min Rain = 0
KSW1 241649Z 11006KT 09/M07 A3039 RMK A01 T00861065  RH  034%=      5-min Rain = 0
KSW1 241650Z 12003KT 09/M07 A3039 RMK A01 T00851065  RH  034%=      5-min Rain = 0
KSW1 241651Z 11007KT 09/M07 A3039 RMK A01 T00851065  RH  034%=      5-min Rain = 0
KSW1 241652Z 10005KT 09/M07 A3039 RMK A01 T00851065  RH  034%=      5-min Rain = 0
KSW1 241653Z 07005KT 09/M06 A3039 RMK A01 T00871060  RH  035%=      5-min Rain = 0
KSW1 241654Z 07007KT 09/M06 A3039 RMK A01 T00911062  RH  033%=      5-min Rain = 0
KSW1 241655Z 08007KT 09/M06 A3039 RMK A01 T00931062  RH  033%=      5-min Rain = 0
KSW1 241656Z 08006KT 09/M07 A3039 RMK A01 T00921067  RH  032%=      5-min Rain = 0
KSW1 241657Z 07007KT 09/M07 A3039 RMK A01 T00911066  RH  032%=      5-min Rain = 0
KSW1 241658Z 08008KT 09/M07 A3039 RMK A01 T00921066  RH  032%=      5-min Rain = 0
KSW1 241659Z 08006KT 09/M07 A3039 RMK A01 T00931068  RH  031%=      5-min Rain = 0
KSW1 241700Z 11007KT 09/M07 A3039 RMK A01 T00931069  RH  031%=      5-min Rain = 0
KSW1 241701Z 11009G14KT 10/M07 A3039 RMK A01 T00951068  RH  031%=      5-min Rain = 0
KSW1 241702Z 12008KT 10/M07 A3039 RMK A01 T00971071  RH  030%=      5-min Rain = 0
KSW1 241703Z 12004KT 10/M08 A3039 RMK A01 T00981076  RH  028%=      5-min Rain = 0
KSW1 241704Z 10004KT 09/M08 A3039 RMK A01 T00941081  RH  028%=      5-min Rain = 0
KSW1 241705Z 11007KT 09/M08 A3039 RMK A01 T00941082  RH  028%=      5-min Rain = 0
KSW1 241706Z 12009KT 10/M09 A3039 RMK A01 T00971085  RH  027%=      5-min Rain = 0
KSW1 241707Z 11008KT 10/M09 A3039 RMK A01 T00991091  RH  025%=      5-min Rain = 0
KSW1 241708Z 11010KT 10/M09 A3039 RMK A01 T00971090  RH  026%=      5-min Rain = 0
KSW1 241709Z 12009KT 10/M08 A3039 RMK A01 T00971084  RH  027%=      5-min Rain = 0
KSW1 241710Z 13009KT 10/M08 A3039 RMK A01 T00971079  RH  028%=      5-min Rain = 0
KSW1 241711Z 11009KT 10/M08 A3039 RMK A01 T00971080  RH  028%=      5-min Rain = 0
KSW1 241712Z 11008KT 10/M09 A3039 RMK A01 T00981085  RH  027%=      5-min Rain = 0
KSW1 241713Z 11006KT 10/M09 A3039 RMK A01 T00971087  RH  026%=      5-min Rain = 0
KSW1 241714Z 09006KT 10/M08 A3039 RMK A01 T00961084  RH  027%=      5-min Rain = 0
KSW1 241715Z 11008KT 10/M08 A3039 RMK A01 T00991081  RH  027%=      5-min Rain = 0
KSW1 241716Z 12009KT 10/M08 A3039 RMK A01 T01001083  RH  027%=      5-min Rain = 0
KSW1 241717Z 12008KT 10/M08 A3039 RMK A01 T00991084  RH  027%=      5-min Rain = 0
KSW1 241718Z 14005KT 10/M09 A3038 RMK A01 T00981086  RH  026%=      5-min Rain = 0
KSW1 241719Z 11006KT 10/M09 A3038 RMK A01 T00971087  RH  026%=      5-min Rain = 0
KSW1 241720Z 10007KT 10/M09 A3038 RMK A01 T00981086  RH  026%=      5-min Rain = 0
KSW1 241721Z 12005KT 10/M09 A3038 RMK A01 T00991087  RH  026%=      5-min Rain = 0
KSW1 241722Z 11004KT 10/M09 A3038 RMK A01 T00981088  RH  026%=      5-min Rain = 0
KSW1 241723Z 08008KT 10/M09 A3038 RMK A01 T00971087  RH  026%=      5-min Rain = 0
KSW1 241724Z 10008KT 10/M09 A3038 RMK A01 T00991087  RH  026%=      5-min Rain = 0
KSW1 241725Z 11009KT 10/M08 A3038 RMK A01 T01021083  RH  026%=      5-min Rain = 0
KSW1 241726Z 11008KT 10/M09 A3038 RMK A01 T01031087  RH  025%=      5-min Rain = 0
KSW1 241727Z 12006KT 10/M09 A3038 RMK A01 T00991092  RH  025%=      5-min Rain = 0
KSW1 241728Z 11006KT 10/M09 A3038 RMK A01 T00981088  RH  026%=      5-min Rain = 0
KSW1 241729Z 11007KT 10/M08 A3038 RMK A01 T01001083  RH  027%=      5-min Rain = 0
KSW1 241730Z 08008KT 10/M08 A3038 RMK A01 T00991082  RH  027%=      5-min Rain = 0
KSW1 241731Z 12008KT 10/M08 A3038 RMK A01 T01011079  RH  027%=      5-min Rain = 0
KSW1 241732Z 13009KT 10/M08 A3038 RMK A01 T01021080  RH  027%=      5-min Rain = 0
KSW1 241733Z 11007KT 11/M08 A3038 RMK A01 T01051078  RH  027%=      5-min Rain = 0
KSW1 241734Z 12007KT 11/M08 A3038 RMK A01 T01081077  RH  027%=      5-min Rain = 0
KSW1 241735Z 12007KT 11/M08 A3038 RMK A01 T01081082  RH  025%=      5-min Rain = 0
KSW1 241736Z 12007KT 11/M08 A3038 RMK A01 T01061081  RH  026%=      5-min Rain = 0
KSW1 241737Z 09005KT 11/M08 A3038 RMK A01 T01071078  RH  026%=      5-min Rain = 0
KSW1 241738Z 12005KT 11/M08 A3038 RMK A01 T01101075  RH  027%=      5-min Rain = 0
KSW1 241739Z 14004KT 11/M08 A3038 RMK A01 T01141078  RH  025%=      5-min Rain = 0
KSW1 241740Z 13008KT 12/M08 A3038 RMK A01 T01151080  RH  025%=      5-min Rain = 0
KSW1 241741Z 09010KT 11/M09 A3038 RMK A01 T01141086  RH  024%=      5-min Rain = 0
KSW1 241742Z 11008KT 11/M09 A3038 RMK A01 T01091093  RH  023%=      5-min Rain = 0
KSW1 241743Z 12007KT 11/M08 A3038 RMK A01 T01091083  RH  025%=      5-min Rain = 0
KSW1 241744Z 11010KT 11/M08 A3038 RMK A01 T01131080  RH  025%=      5-min Rain = 0
KSW1 241745Z 09010KT 11/M09 A3038 RMK A01 T01131085  RH  024%=      5-min Rain = 0
KSW1 241746Z 10008KT 11/M08 A3038 RMK A01 T01111083  RH  025%=      5-min Rain = 0
KSW1 241747Z 11006KT 11/M09 A3038 RMK A01 T01101087  RH  024%=      5-min Rain = 0
KSW1 241748Z 10007KT 11/M09 A3038 RMK A01 T01071087  RH  025%=      5-min Rain = 0
KSW1 241749Z 10007KT 11/M09 A3038 RMK A01 T01071089  RH  024%=      5-min Rain = 0
KSW1 241750Z 10007KT 11/M09 A3038 RMK A01 T01071088  RH  025%=      5-min Rain = 0
KSW1 241751Z 11011KT 11/M09 A3037 RMK A01 T01081087  RH  025%=      5-min Rain = 0
KSW1 241752Z 11008KT 11/M08 A3038 RMK A01 T01111084  RH  024%=      5-min Rain = 0
KSW1 241753Z 13009KT 11/M08 A3037 RMK A01 T01131083  RH  024%=      5-min Rain = 0
KSW1 241754Z 12006KT 11/M09 A3037 RMK A01 T01131087  RH  024%=      5-min Rain = 0
KSW1 241755Z 11007KT 11/M09 A3037 RMK A01 T01121087  RH  024%=      5-min Rain = 0
KSW1 241756Z 13007KT 11/M09 A3037 RMK A01 T01101087  RH  024%=      5-min Rain = 0
KSW1 241757Z 12007KT 11/M08 A3037 RMK A01 T01121083  RH  025%=      5-min Rain = 0
KSW1 241758Z 13007KT 11/M09 A3037 RMK A01 T01111087  RH  024%=      5-min Rain = 0
KSW1 241759Z 11006KT 11/M08 A3037 RMK A01 T01081084  RH  025%=      5-min Rain = 0
KSW1 241800Z 11009KT 11/M08 A3037 RMK A01 T01111080  RH  025%=      5-min Rain = 0
KSW1 241801Z 09010KT 11/M08 A3037 RMK A01 T01121080  RH  025%=      5-min Rain = 0
KSW1 241802Z 10008KT 11/M08 A3037 RMK A01 T01131082  RH  025%=      5-min Rain = 0
KSW1 241803Z 09010KT 11/M08 A3037 RMK A01 T01131079  RH  025%=      5-min Rain = 0
KSW1 241804Z 10011KT 12/M08 A3037 RMK A01 T01151079  RH  025%=      5-min Rain = 0
KSW1 241805Z 10006KT 11/M08 A3037 RMK A01 T01131082  RH  025%=      5-min Rain = 0
KSW1 241806Z 12008KT 11/M08 A3037 RMK A01 T01121080  RH  025%=      5-min Rain = 0
KSW1 241807Z 10011KT 12/M08 A3037 RMK A01 T01151076  RH  025%=      5-min Rain = 0
KSW1 241808Z 12010KT 12/M08 A3037 RMK A01 T01181082  RH  024%=      5-min Rain = 0
KSW1 241809Z 14009KT 12/M08 A3037 RMK A01 T01171082  RH  024%=      5-min Rain = 0
KSW1 241810Z 13007KT 12/M08 A3037 RMK A01 T01161083  RH  024%=      5-min Rain = 0
KSW1 241811Z 14010KT 12/M08 A3037 RMK A01 T01161078  RH  025%=      5-min Rain = 0
KSW1 241812Z 12008KT 12/M09 A3037 RMK A01 T01171085  RH  023%=      5-min Rain = 0
KSW1 241813Z 11005KT 12/M09 A3037 RMK A01 T01151085  RH  024%=      5-min Rain = 0
KSW1 241814Z 12009KT 11/M08 A3037 RMK A01 T01141083  RH  024%=      5-min Rain = 0
KSW1 241815Z 13007KT 12/M08 A3037 RMK A01 T01151084  RH  024%=      5-min Rain = 0
KSW1 241816Z 13009KT 12/M08 A3036 RMK A01 T01161083  RH  024%=      5-min Rain = 0
KSW1 241817Z 11008KT 12/M08 A3037 RMK A01 T01181082  RH  024%=      5-min Rain = 0
KSW1 241818Z 12011KT 12/M08 A3037 RMK A01 T01181078  RH  025%=      5-min Rain = 0
KSW1 241819Z 12010KT 12/M08 A3037 RMK A01 T01191077  RH  025%=      5-min Rain = 0
KSW1 241820Z 13006KT 12/M08 A3037 RMK A01 T01181078  RH  025%=      5-min Rain = 0
KSW1 241821Z 10007KT 12/M08 A3036 RMK A01 T01151079  RH  025%=      5-min Rain = 0
KSW1 241822Z 09007KT 12/M08 A3036 RMK A01 T01151076  RH  025%=      5-min Rain = 0
KSW1 241823Z 10006KT 12/M07 A3036 RMK A01 T01151072  RH  026%=      5-min Rain = 0
KSW1 241824Z 13008KT 12/M07 A3036 RMK A01 T01201072  RH  025%=      5-min Rain = 0
KSW1 241825Z 15011KT 12/M07 A3036 RMK A01 T01191072  RH  026%=      5-min Rain = 0
KSW1 241826Z 16008KT 12/M07 A3036 RMK A01 T01211073  RH  025%=      5-min Rain = 0
KSW1 241827Z 16006KT 12/M08 A3036 RMK A01 T01191076  RH  025%=      5-min Rain = 0
KSW1 241828Z 11007KT 12/M07 A3036 RMK A01 T01181072  RH  026%=      5-min Rain = 0
KSW1 241829Z 11008KT 12/M07 A3036 RMK A01 T01211071  RH  025%=      5-min Rain = 0
KSW1 241830Z 12007KT 12/M07 A3036 RMK A01 T01231072  RH  025%=      5-min Rain = 0
KSW1 241831Z 13010KT 12/M07 A3035 RMK A01 T01241072  RH  025%=      5-min Rain = 0
KSW1 241832Z 13012KT 13/M08 A3035 RMK A01 T01261077  RH  024%=      5-min Rain = 0
KSW1 241833Z 13009KT 12/M08 A3035 RMK A01 T01221083  RH  023%=      5-min Rain = 0
KSW1 241834Z 15006KT 12/M08 A3035 RMK A01 T01211078  RH  024%=      5-min Rain = 0
KSW1 241835Z 12008KT 12/M08 A3035 RMK A01 T01241076  RH  024%=      5-min Rain = 0
KSW1 241836Z 11010KT 13/M08 A3035 RMK A01 T01281076  RH  023%=      5-min Rain = 0
KSW1 241837Z 10008KT 13/M08 A3035 RMK A01 T01261079  RH  023%=      5-min Rain = 0
KSW1 241838Z 10009KT 12/M08 A3035 RMK A01 T01231084  RH  023%=      5-min Rain = 0
KSW1 241839Z 12009KT 12/M08 A3035 RMK A01 T01221082  RH  023%=      5-min Rain = 0
KSW1 241840Z 13008KT 13/M08 A3035 RMK A01 T01251076  RH  024%=      5-min Rain = 0
KSW1 241841Z 14011KT 13/M08 A3035 RMK A01 T01301078  RH  023%=      5-min Rain = 0
KSW1 241842Z 14012KT 13/M09 A3035 RMK A01 T01291087  RH  021%=      5-min Rain = 0
KSW1 241843Z 15011KT 13/M09 A3035 RMK A01 T01251088  RH  022%=      5-min Rain = 0
KSW1 241844Z 16009KT 12/M09 A3035 RMK A01 T01241090  RH  022%=      5-min Rain = 0
KSW1 241845Z 13009KT 12/M09 A3035 RMK A01 T01231089  RH  022%=      5-min Rain = 0
KSW1 241846Z 11009KT 13/M08 A3035 RMK A01 T01261084  RH  022%=      5-min Rain = 0
KSW1 241847Z 10006KT 13/M09 A3035 RMK A01 T01261088  RH  022%=      5-min Rain = 0
KSW1 241848Z 14007KT 12/M09 A3035 RMK A01 T01241088  RH  022%=      5-min Rain = 0
KSW1 241849Z 15008KT 12/M08 A3035 RMK A01 T01221082  RH  023%=      5-min Rain = 0
KSW1 241850Z 14010KT 12/M08 A3035 RMK A01 T01221081  RH  023%=      5-min Rain = 0
KSW1 241851Z 13010KT 12/M08 A3035 RMK A01 T01241079  RH  024%=      5-min Rain = 0
KSW1 241852Z 12007KT 12/M08 A3035 RMK A01 T01241077  RH  024%=      5-min Rain = 0
KSW1 241853Z 13008KT 12/M07 A3035 RMK A01 T01241074  RH  024%=      5-min Rain = 0
KSW1 241854Z 11009KT 13/M08 A3035 RMK A01 T01271075  RH  024%=      5-min Rain = 0
KSW1 241855Z 10008KT 13/M08 A3034 RMK A01 T01251077  RH  024%=      5-min Rain = 0
KSW1 241856Z 11007KT 12/M08 A3034 RMK A01 T01241076  RH  024%=      5-min Rain = 0
KSW1 241857Z 12013KT 13/M07 A3034 RMK A01 T01271073  RH  024%=      5-min Rain = 0
KSW1 241858Z 11013KT 13/M08 A3034 RMK A01 T01271077  RH  023%=      5-min Rain = 0
KSW1 241859Z 11011KT 13/M08 A3034 RMK A01 T01261078  RH  023%=      5-min Rain = 0
KSW1 241900Z 12009KT 13/M08 A3034 RMK A01 T01261075  RH  024%=      5-min Rain = 0
KSW1 241901Z 13007KT 13/M08 A3034 RMK A01 T01281075  RH  024%=      5-min Rain = 0
KSW1 241902Z 17009KT 13/M07 A3034 RMK A01 T01301074  RH  024%=      5-min Rain = 0
KSW1 241903Z 17008KT 13/M08 A3034 RMK A01 T01301078  RH  023%=      5-min Rain = 0
KSW1 241904Z 17009KT 13/M08 A3034 RMK A01 T01291079  RH  023%=      5-min Rain = 0
KSW1 241905Z 14007KT 13/M08 A3034 RMK A01 T01281079  RH  023%=      5-min Rain = 0
KSW1 241906Z 12010KT 13/M08 A3034 RMK A01 T01291076  RH  023%=      5-min Rain = 0
KSW1 241907Z 10009KT 13/M08 A3034 RMK A01 T01311079  RH  022%=      5-min Rain = 0
KSW1 241908Z 09007KT 13/M08 A3034 RMK A01 T01291082  RH  022%=      5-min Rain = 0
KSW1 241909Z 12007KT 13/M08 A3034 RMK A01 T01271082  RH  023%=      5-min Rain = 0
KSW1 241910Z 11008G13KT 13/M08 A3034 RMK A01 T01281076  RH  023%=      5-min Rain = 0
KSW1 241911Z 13011KT 13/M08 A3033 RMK A01 T01301077  RH  023%=      5-min Rain = 0
KSW1 241912Z 12010KT 13/M08 A3034 RMK A01 T01311079  RH  022%=      5-min Rain = 0
KSW1 241913Z 10006KT 13/M09 A3034 RMK A01 T01271085  RH  022%=      5-min Rain = 0
KSW1 241914Z 11006KT 12/M09 A3033 RMK A01 T01241085  RH  022%=      5-min Rain = 0
KSW1 241915Z 12005KT 12/M08 A3033 RMK A01 T01241082  RH  023%=      5-min Rain = 0
KSW1 241916Z 14010KT 13/M08 A3033 RMK A01 T01261078  RH  023%=      5-min Rain = 0
KSW1 241917Z 13007KT 13/M08 A3033 RMK A01 T01281083  RH  022%=      5-min Rain = 0
KSW1 241918Z 11011G16KT 13/M08 A3033 RMK A01 T01301077  RH  023%=      5-min Rain = 0
KSW1 241919Z 13013KT 13/M08 A3033 RMK A01 T01341079  RH  022%=      5-min Rain = 0
KSW1 241920Z 13011KT 13/M08 A3033 RMK A01 T01321083  RH  022%=      5-min Rain = 0
KSW1 241921Z 13010KT 13/M09 A3033 RMK A01 T01311085  RH  022%=      5-min Rain = 0
KSW1 241922Z 13008KT 13/M08 A3033 RMK A01 T01291082  RH  022%=      5-min Rain = 0
KSW1 241923Z 14006KT 13/M08 A3033 RMK A01 T01331081  RH  022%=      5-min Rain = 0
KSW1 241924Z 11008G13KT 13/M09 A3033 RMK A01 T01311085  RH  021%=      5-min Rain = 0
KSW1 241925Z 13010KT 13/M08 A3033 RMK A01 T01321083  RH  022%=      5-min Rain = 0
KSW1 241926Z 14010KT 13/M08 A3033 RMK A01 T01331082  RH  022%=      5-min Rain = 0
KSW1 241927Z 14012KT 13/M08 A3033 RMK A01 T01341080  RH  022%=      5-min Rain = 0
KSW1 241928Z 13013KT 14/M08 A3033 RMK A01 T01351081  RH  021%=      5-min Rain = 0
KSW1 241929Z 12010KT 14/M08 A3033 RMK A01 T01351084  RH  021%=      5-min Rain = 0
KSW1 241930Z 14007KT 13/M09 A3033 RMK A01 T01321087  RH  021%=      5-min Rain = 0
KSW1 241931Z 14010KT 13/M09 A3033 RMK A01 T01301086  RH  021%=      5-min Rain = 0
KSW1 241932Z 15010KT 13/M08 A3032 RMK A01 T01301083  RH  022%=      5-min Rain = 0
KSW1 241933Z 15010KT 13/M08 A3033 RMK A01 T01311080  RH  022%=      5-min Rain = 0
KSW1 241934Z 16009G15KT 14/M08 A3033 RMK A01 T01351076  RH  022%=      5-min Rain = 0
KSW1 241935Z 15011KT 14/M08 A3032 RMK A01 T01371081  RH  021%=      5-min Rain = 0
KSW1 241936Z 16010KT 13/M08 A3032 RMK A01 T01331084  RH  021%=      5-min Rain = 0
KSW1 241937Z 15013KT 13/M08 A3032 RMK A01 T01321083  RH  022%=      5-min Rain = 0
KSW1 241938Z 16011KT 13/M08 A3032 RMK A01 T01321083  RH  022%=      5-min Rain = 0
KSW1 241939Z 16010KT 13/M09 A3032 RMK A01 T01311086  RH  021%=      5-min Rain = 0
KSW1 241940Z 16009KT 13/M09 A3032 RMK A01 T01291086  RH  021%=      5-min Rain = 0
KSW1 241941Z 14008KT 13/M08 A3032 RMK A01 T01291082  RH  022%=      5-min Rain = 0
KSW1 241942Z 11010KT 13/M08 A3032 RMK A01 T01341079  RH  022%=      5-min Rain = 0
KSW1 241943Z 11009KT 13/M09 A3032 RMK A01 T01331086  RH  021%=      5-min Rain = 0
KSW1 241944Z 13007KT 13/M09 A3032 RMK A01 T01291085  RH  022%=      5-min Rain = 0
KSW1 241945Z 14013KT 13/M08 A3032 RMK A01 T01321078  RH  023%=      5-min Rain = 0
KSW1 241946Z 15009KT 14/M08 A3032 RMK A01 T01351083  RH  021%=      5-min Rain = 0
KSW1 241947Z 12012KT 13/M08 A3032 RMK A01 T01321084  RH  021%=      5-min Rain = 0
KSW1 241948Z 13011KT 13/M08 A3032 RMK A01 T01321081  RH  022%=      5-min Rain = 0
KSW1 241949Z 14011KT 13/M08 A3031 RMK A01 T01301084  RH  022%=      5-min Rain = 0
KSW1 241950Z 14008KT 13/M08 A3031 RMK A01 T01281083  RH  022%=      5-min Rain = 0
KSW1 241951Z 14006KT 13/M09 A3031 RMK A01 T01281086  RH  022%=      5-min Rain = 0
KSW1 241952Z 15007KT 13/M08 A3031 RMK A01 T01271084  RH  022%=      5-min Rain = 0
KSW1 241953Z 12009KT 13/M08 A3031 RMK A01 T01281080  RH  023%=      5-min Rain = 0
KSW1 241954Z 12011KT 13/M08 A3031 RMK A01 T01301081  RH  022%=      5-min Rain = 0
KSW1 241955Z 12009KT 13/M09 A3031 RMK A01 T01291085  RH  022%=      5-min Rain = 0
KSW1 241956Z 13007KT 13/M08 A3031 RMK A01 T01281083  RH  022%=      5-min Rain = 0
KSW1 241957Z 12008KT 13/M08 A3031 RMK A01 T01281082  RH  022%=      5-min Rain = 0
KSW1 241958Z 14008KT 13/M08 A3031 RMK A01 T01291078  RH  023%=      5-min Rain = 0
KSW1 241959Z 15010KT 13/M08 A3031 RMK A01 T01341078  RH  022%=      5-min Rain = 0
KSW1 242000Z 15007KT 13/M08 A3031 RMK A01 T01311082  RH  022%=      5-min Rain = 0
KSW1 242001Z 15010KT 13/M08 A3031 RMK A01 T01311077  RH  023%=      5-min Rain = 0
KSW1 242002Z 14012KT 14/M08 A3031 RMK A01 T01351076  RH  022%=      5-min Rain = 0
KSW1 242003Z 13012KT 14/M08 A3031 RMK A01 T01361080  RH  022%=      5-min Rain = 0
KSW1 242004Z 12010KT 13/M08 A3031 RMK A01 T01341082  RH  022%=      5-min Rain = 0
KSW1 242005Z 12011KT 13/M08 A3031 RMK A01 T01331082  RH  022%=      5-min Rain = 0
KSW1 242006Z 12012KT 13/M08 A303 RMK A01 T01291083  RH  022%=      5-min Rain = 0
KSW1 242007Z 12011KT 13/M09 A3031 RMK A01 T01291085  RH  022%=      5-min Rain = 0
KSW1 242008Z 11008KT 13/M09 A303 RMK A01 T01301087  RH  021%=      5-min Rain = 0
KSW1 242009Z 12009KT 13/M09 A303 RMK A01 T01301086  RH  022%=      5-min Rain = 0
KSW1 242010Z 14012KT 13/M08 A303 RMK A01 T01321080  RH  022%=      5-min Rain = 0
KSW1 242011Z 12010KT 13/M08 A303 RMK A01 T01311082  RH  022%=      5-min Rain = 0
KSW1 242012Z 11011KT 13/M08 A303 RMK A01 T01311082  RH  022%=      5-min Rain = 0
KSW1 242013Z 10009KT 13/M08 A303 RMK A01 T01311082  RH  022%=      5-min Rain = 0
KSW1 242014Z 12009KT 13/M08 A303 RMK A01 T01301082  RH  022%=      5-min Rain = 0
KSW1 242015Z 12011KT 13/M08 A303 RMK A01 T01301079  RH  023%=      5-min Rain = 0
KSW1 242016Z 11012KT 13/M08 A303 RMK A01 T01331077  RH  023%=      5-min Rain = 0
KSW1 242017Z 14009KT 14/M07 A303 RMK A01 T01351074  RH  023%=      5-min Rain = 0
KSW1 242018Z 15011KT 14/M07 A303 RMK A01 T01371072  RH  023%=      5-min Rain = 0
KSW1 242019Z 15009KT 14/M08 A303 RMK A01 T01381076  RH  022%=      5-min Rain = 0
KSW1 242020Z 15009KT 14/M08 A303 RMK A01 T01381077  RH  022%=      5-min Rain = 0
KSW1 242021Z 15006KT 14/M08 A303 RMK A01 T01351083  RH  021%=      5-min Rain = 0
KSW1 242022Z 17009G14KT 13/M08 A303 RMK A01 T01341075  RH  023%=      5-min Rain = 0
KSW1 242023Z 14010KT 14/M08 A303 RMK A01 T01381077  RH  022%=      5-min Rain = 0
KSW1 242024Z 13009KT 14/M08 A303 RMK A01 T01381076  RH  022%=      5-min Rain = 0
KSW1 242025Z 16010KT 14/M08 A303 RMK A01 T01381077  RH  022%=      5-min Rain = 0
KSW1 242026Z 16010KT 14/M08 A303 RMK A01 T01361084  RH  021%=      5-min Rain = 0
KSW1 242027Z 16010KT 14/M08 A303 RMK A01 T01351082  RH  021%=      5-min Rain = 0
KSW1 242028Z 15012KT 14/M08 A303 RMK A01 T01351082  RH  021%=      5-min Rain = 0
KSW1 242029Z 15011KT 14/M08 A303 RMK A01 T01361080  RH  022%=      5-min Rain = 0
KSW1 242030Z 16011KT 14/M08 A303 RMK A01 T01361083  RH  021%=      5-min Rain = 0
KSW1 242031Z 16009G17KT 13/M08 A303 RMK A01 T01331083  RH  021%=      5-min Rain = 0
KSW1 242032Z 12013KT 14/M08 A303 RMK A01 T01351079  RH  022%=      5-min Rain = 0
KSW1 242033Z 12011KT 14/M08 A303 RMK A01 T01361083  RH  021%=      5-min Rain = 0
KSW1 242034Z 13009KT 14/M08 A3029 RMK A01 T01361080  RH  022%=      5-min Rain = 0
KSW1 242035Z 13008KT 14/M08 A3029 RMK A01 T01381078  RH  022%=      5-min Rain = 0
KSW1 242036Z 12012KT 14/M08 A3029 RMK A01 T01401077  RH  021%=      5-min Rain = 0
KSW1 242037Z 11013KT 14/M08 A3029 RMK A01 T01381080  RH  021%=      5-min Rain = 0
KSW1 242038Z 11010KT 14/M08 A3029 RMK A01 T01381078  RH  022%=      5-min Rain = 0
KSW1 242039Z 10008KT 14/M08 A3029 RMK A01 T01351082  RH  021%=      5-min Rain = 0
KSW1 242040Z 13008KT 13/M08 A3029 RMK A01 T01321082  RH  022%=      5-min Rain = 0
KSW1 242041Z 16007KT 14/M08 A3029 RMK A01 T01351079  RH  022%=      5-min Rain = 0
KSW1 242042Z 16008KT 14/M08 A3029 RMK A01 T01361082  RH  021%=      5-min Rain = 0
KSW1 242043Z 15009KT 14/M08 A3028 RMK A01 T01361081  RH  021%=      5-min Rain = 0
KSW1 242044Z 13011G16KT 14/M08 A3029 RMK A01 T01391079  RH  021%=      5-min Rain = 0
KSW1 242045Z 13013KT 14/M08 A3029 RMK A01 T01421082  RH  020%=      5-min Rain = 0
KSW1 242046Z 12012KT 14/M08 A3029 RMK A01 T01391084  RH  021%=      5-min Rain = 0
KSW1 242047Z 12012KT 14/M09 A3029 RMK A01 T01391085  RH  020%=      5-min Rain = 0
KSW1 242048Z 10007KT 14/M08 A3029 RMK A01 T01381083  RH  021%=      5-min Rain = 0
KSW1 242049Z 09006KT 14/M09 A3028 RMK A01 T01391087  RH  020%=      5-min Rain = 0
KSW1 242050Z 11011KT 14/M09 A3028 RMK A01 T01371087  RH  020%=      5-min Rain = 0
KSW1 242051Z 13010G15KT 14/M09 A3028 RMK A01 T01381085  RH  020%=      5-min Rain = 0
KSW1 242052Z 15009KT 14/M08 A3028 RMK A01 T01391082  RH  021%=      5-min Rain = 0
KSW1 242053Z 15015KT 14/M08 A3028 RMK A01 T01431082  RH  020%=      5-min Rain = 0
KSW1 242054Z 14012KT 14/M09 A3028 RMK A01 T01421089  RH  019%=      5-min Rain = 0
KSW1 242055Z 13009KT 14/M09 A3028 RMK A01 T01401090  RH  019%=      5-min Rain = 0
KSW1 242056Z 13008KT 14/M09 A3028 RMK A01 T01391091  RH  019%=      5-min Rain = 0
KSW1 242057Z 13011KT 14/M09 A3028 RMK A01 T01381087  RH  020%=      5-min Rain = 0
KSW1 242058Z 13010KT 14/M09 A3028 RMK A01 T01401088  RH  020%=      5-min Rain = 0
KSW1 242059Z 11009KT 14/M08 A3028 RMK A01 T01431081  RH  020%=      5-min Rain = 0
KSW1 242100Z 10012KT 15/M08 A3028 RMK A01 T01461084  RH  020%=      5-min Rain = 0
KSW1 242101Z 10010G15KT 14/M09 A3028 RMK A01 T01441089  RH  019%=      5-min Rain = 0
KSW1 242102Z 11010KT 14/M09 A3028 RMK A01 T01401089  RH  020%=      5-min Rain = 0
KSW1 242103Z 10009KT 14/M09 A3028 RMK A01 T01381089  RH  020%=      5-min Rain = 0
KSW1 242104Z 11007KT 14/M09 A3028 RMK A01 T01381091  RH  020%=      5-min Rain = 0
KSW1 242105Z 09008KT 14/M08 A3027 RMK A01 T01371083  RH  021%=      5-min Rain = 0
KSW1 242106Z 11009KT 14/M08 A3027 RMK A01 T01411079  RH  021%=      5-min Rain = 0
KSW1 242107Z 11009KT 14/M08 A3027 RMK A01 T01401077  RH  021%=      5-min Rain = 0
KSW1 242108Z 13007KT 14/M08 A3027 RMK A01 T01391077  RH  022%=      5-min Rain = 0
KSW1 242109Z 14010KT 14/M07 A3027 RMK A01 T01401072  RH  022%=      5-min Rain = 0
KSW1 242110Z 13013KT 14/M07 A3027 RMK A01 T01421069  RH  022%=      5-min Rain = 0
KSW1 242111Z 15012KT 14/M07 A3027 RMK A01 T01411070  RH  022%=      5-min Rain = 0
KSW1 242112Z 13012KT 14/M07 A3027 RMK A01 T01421069  RH  022%=      5-min Rain = 0
KSW1 242113Z 14011KT 14/M07 A3027 RMK A01 T01411072  RH  022%=      5-min Rain = 0
KSW1 242114Z 14009KT 14/M07 A3027 RMK A01 T01401071  RH  023%=      5-min Rain = 0
KSW1 242115Z 14008KT 14/M07 A3027 RMK A01 T01391072  RH  022%=      5-min Rain = 0
KSW1 242116Z 14008KT 14/M07 A3027 RMK A01 T01391069  RH  023%=      5-min Rain = 0
KSW1 242117Z 14010KT 14/M07 A3027 RMK A01 T01411068  RH  023%=      5-min Rain = 0
KSW1 242118Z 12010KT 14/M07 A3027 RMK A01 T01421071  RH  022%=      5-min Rain = 0
KSW1 242119Z 14011KT 14/M07 A3027 RMK A01 T01441070  RH  022%=      5-min Rain = 0
KSW1 242120Z 14010KT 14/M07 A3027 RMK A01 T01431070  RH  022%=      5-min Rain = 0
KSW1 242121Z 12011KT 14/M07 A3027 RMK A01 T01421070  RH  022%=      5-min Rain = 0
KSW1 242122Z 12007KT 14/M07 A3027 RMK A01 T01421072  RH  022%=      5-min Rain = 0
KSW1 242123Z 15010KT 14/M07 A3027 RMK A01 T01421073  RH  022%=      5-min Rain = 0
KSW1 242124Z 14009G14KT 14/M07 A3027 RMK A01 T01401074  RH  022%=      5-min Rain = 0
KSW1 242125Z 14012KT 14/M07 A3027 RMK A01 T01391072  RH  023%=      5-min Rain = 0
KSW1 242126Z 13012KT 14/M07 A3027 RMK A01 T01411069  RH  023%=      5-min Rain = 0
KSW1 242127Z 13009KT 14/M07 A3027 RMK A01 T01401073  RH  022%=      5-min Rain = 0
KSW1 242128Z 15011KT 14/M07 A3027 RMK A01 T01391070  RH  023%=      5-min Rain = 0
KSW1 242129Z 16009KT 14/M07 A3027 RMK A01 T01411068  RH  023%=      5-min Rain = 0
KSW1 242130Z 16009KT 14/M07 A3027 RMK A01 T01431070  RH  022%=      5-min Rain = 0
KSW1 242131Z 13010KT 14/M07 A3027 RMK A01 T01421066  RH  023%=      5-min Rain = 0
KSW1 242132Z 12009KT 15/M06 A3027 RMK A01 T01451064  RH  023%=      5-min Rain = 0
KSW1 242133Z 13010KT 15/M07 A3027 RMK A01 T01471065  RH  023%=      5-min Rain = 0
KSW1 242134Z 13011KT 15/M07 A3027 RMK A01 T01461067  RH  022%=      5-min Rain = 0
KSW1 242135Z 12011KT 14/M07 A3027 RMK A01 T01431073  RH  022%=      5-min Rain = 0
KSW1 242136Z 12009KT 14/M07 A3027 RMK A01 T01391072  RH  022%=      5-min Rain = 0
KSW1 242137Z 12008KT 14/M07 A3027 RMK A01 T01391071  RH  023%=      5-min Rain = 0
KSW1 242138Z 14011KT 14/M07 A3026 RMK A01 T01401067  RH  023%=      5-min Rain = 0
KSW1 242139Z 15013KT 14/M07 A3026 RMK A01 T01411067  RH  023%=      5-min Rain = 0
KSW1 242140Z 15011KT 14/M07 A3026 RMK A01 T01401069  RH  023%=      5-min Rain = 0
KSW1 242141Z 14009KT 14/M07 A3026 RMK A01 T01391069  RH  023%=      5-min Rain = 0
KSW1 242142Z 15008KT 14/M07 A3026 RMK A01 T01391069  RH  023%=      5-min Rain = 0
KSW1 242143Z 15007KT 14/M07 A3026 RMK A01 T01391069  RH  023%=      5-min Rain = 0
KSW1 242144Z 13008G16KT 14/M07 A3026 RMK A01 T01391067  RH  023%=      5-min Rain = 0
KSW1 242145Z 14014KT 14/M07 A3026 RMK A01 T01421066  RH  023%=      5-min Rain = 0
KSW1 242146Z 15012KT 14/M07 A3026 RMK A01 T01431069  RH  023%=      5-min Rain = 0
KSW1 242147Z 15011KT 14/M07 A3026 RMK A01 T01421070  RH  022%=      5-min Rain = 0
KSW1 242148Z 13010KT 14/M07 A3026 RMK A01 T01411072  RH  022%=      5-min Rain = 0
KSW1 242149Z 15009KT 14/M07 A3026 RMK A01 T01401069  RH  023%=      5-min Rain = 0
KSW1 242150Z 15010KT 14/M07 A3026 RMK A01 T01431071  RH  022%=      5-min Rain = 0
KSW1 242151Z 15009KT 14/M07 A3026 RMK A01 T01421071  RH  022%=      5-min Rain = 0
KSW1 242152Z 16011KT 14/M07 A3026 RMK A01 T01441071  RH  022%=      5-min Rain = 0
KSW1 242153Z 16010KT 14/M07 A3026 RMK A01 T01441070  RH  022%=      5-min Rain = 0
KSW1 242154Z 16010KT 15/M07 A3026 RMK A01 T01451068  RH  022%=      5-min Rain = 0
KSW1 242155Z 16013KT 15/M07 A3026 RMK A01 T01461070  RH  022%=      5-min Rain = 0
KSW1 242156Z 13012KT 15/M07 A3026 RMK A01 T01451072  RH  022%=      5-min Rain = 0
KSW1 242157Z 11012KT 14/M07 A3026 RMK A01 T01441072  RH  022%=      5-min Rain = 0
KSW1 242158Z 12011KT 14/M08 A3026 RMK A01 T01421075  RH  021%=      5-min Rain = 0
KSW1 242159Z 12010KT 14/M07 A3026 RMK A01 T01421072  RH  022%=      5-min Rain = 0
KSW1 242200Z 13008KT 14/M07 A3026 RMK A01 T01421073  RH  022%=      5-min Rain = 0
KSW1 242201Z 13010KT 14/M07 A3026 RMK A01 T01421074  RH  022%=      5-min Rain = 0
KSW1 242202Z 13010KT 14/M08 A3026 RMK A01 T01401075  RH  022%=      5-min Rain = 0
KSW1 242203Z 12009KT 14/M08 A3026 RMK A01 T01411075  RH  022%=      5-min Rain = 0
KSW1 242204Z 13008KT 14/M08 A3026 RMK A01 T01411075  RH  022%=      5-min Rain = 0
KSW1 242205Z 15008KT 14/M07 A3026 RMK A01 T01431069  RH  022%=      5-min Rain = 0
KSW1 242206Z 15011KT 15/M07 A3026 RMK A01 T01451073  RH  021%=      5-min Rain = 0
KSW1 242207Z 15009KT 15/M08 A3026 RMK A01 T01451075  RH  021%=      5-min Rain = 0
KSW1 242208Z 16009KT 14/M08 A3026 RMK A01 T01441077  RH  021%=      5-min Rain = 0
KSW1 242209Z 15008KT 14/M08 A3026 RMK A01 T01421078  RH  021%=      5-min Rain = 0
KSW1 242210Z 12008KT 14/M08 A3026 RMK A01 T01411075  RH  022%=      5-min Rain = 0
KSW1 242211Z 10008KT 14/M08 A3026 RMK A01 T01421077  RH  021%=      5-min Rain = 0
KSW1 242212Z 11008KT 14/M08 A3026 RMK A01 T01421078  RH  021%=      5-min Rain = 0
KSW1 242213Z 12007KT 14/M08 A3026 RMK A01 T01421075  RH  022%=      5-min Rain = 0
KSW1 242214Z 14008KT 15/M07 A3026 RMK A01 T01451074  RH  021%=      5-min Rain = 0
KSW1 242215Z 14009G14KT 15/M08 A3026 RMK A01 T01461075  RH  021%=      5-min Rain = 0
KSW1 242216Z 13013KT 15/M08 A3026 RMK A01 T01471077  RH  020%=      5-min Rain = 0
KSW1 242217Z 13011KT 15/M08 A3026 RMK A01 T01451083  RH  020%=      5-min Rain = 0
KSW1 242218Z 12011KT 14/M08 A3026 RMK A01 T01441081  RH  020%=      5-min Rain = 0
KSW1 242219Z 13008KT 14/M08 A3026 RMK A01 T01441081  RH  020%=      5-min Rain = 0
KSW1 242220Z 15008KT 14/M08 A3025 RMK A01 T01441081  RH  020%=      5-min Rain = 0
KSW1 242221Z 15012KT 15/M08 A3025 RMK A01 T01451081  RH  020%=      5-min Rain = 0
KSW1 242222Z 15011KT 15/M08 A3025 RMK A01 T01451084  RH  020%=      5-min Rain = 0
KSW1 242223Z 16008KT 14/M08 A3025 RMK A01 T01441083  RH  020%=      5-min Rain = 0
KSW1 242224Z 14011KT 15/M08 A3025 RMK A01 T01451078  RH  021%=      5-min Rain = 0
KSW1 242225Z 14012KT 15/M08 A3025 RMK A01 T01471083  RH  020%=      5-min Rain = 0
KSW1 242226Z 14013KT 15/M09 A3025 RMK A01 T01451087  RH  019%=      5-min Rain = 0
KSW1 242227Z 13011KT 14/M09 A3025 RMK A01 T01431088  RH  019%=      5-min Rain = 0
KSW1 242228Z 11013KT 14/M09 A3025 RMK A01 T01421087  RH  020%=      5-min Rain = 0
KSW1 242229Z 11010KT 14/M09 A3025 RMK A01 T01411090  RH  019%=      5-min Rain = 0
KSW1 242230Z 11007KT 14/M09 A3025 RMK A01 T01401088  RH  020%=      5-min Rain = 0
KSW1 242231Z 14010G16KT 14/M08 A3025 RMK A01 T01401084  RH  020%=      5-min Rain = 0
KSW1 242232Z 15013KT 14/M08 A3025 RMK A01 T01431082  RH  020%=      5-min Rain = 0
KSW1 242233Z 15014KT 14/M08 A3025 RMK A01 T01421084  RH  020%=      5-min Rain = 0
KSW1 242234Z 14010KT 14/M09 A3025 RMK A01 T01421085  RH  020%=      5-min Rain = 0
KSW1 242235Z 13008KT 14/M09 A3025 RMK A01 T01411087  RH  020%=      5-min Rain = 0
KSW1 242236Z 13012KT 14/M09 A3025 RMK A01 T01401085  RH  020%=      5-min Rain = 0
KSW1 242237Z 15010KT 14/M09 A3025 RMK A01 T01401088  RH  020%=      5-min Rain = 0
KSW1 242238Z 14010KT 14/M09 A3025 RMK A01 T01401085  RH  020%=      5-min Rain = 0
KSW1 242239Z 13011KT 14/M08 A3025 RMK A01 T01411082  RH  021%=      5-min Rain = 0
KSW1 242240Z 13010KT 14/M08 A3025 RMK A01 T01411084  RH  020%=      5-min Rain = 0
KSW1 242241Z 11010KT 14/M08 A3025 RMK A01 T01421081  RH  021%=      5-min Rain = 0
KSW1 242242Z 11009KT 14/M08 A3025 RMK A01 T01421081  RH  020%=      5-min Rain = 0
KSW1 242243Z 11009KT 14/M08 A3025 RMK A01 T01431080  RH  021%=      5-min Rain = 0
KSW1 242244Z 14008KT 14/M08 A3025 RMK A01 T01431075  RH  021%=      5-min Rain = 0
KSW1 242245Z 17012KT 15/M08 A3025 RMK A01 T01461079  RH  020%=      5-min Rain = 0
KSW1 242246Z 16012G17KT 14/M08 A3025 RMK A01 T01431083  RH  020%=      5-min Rain = 0
KSW1 242247Z 15015KT 14/M08 A3025 RMK A01 T01421081  RH  021%=      5-min Rain = 0
KSW1 242248Z 14011KT 14/M08 A3025 RMK A01 T01411080  RH  021%=      5-min Rain = 0
KSW1 242249Z 14011KT 14/M08 A3025 RMK A01 T01411078  RH  021%=      5-min Rain = 0
KSW1 242250Z 14010KT 14/M08 A3025 RMK A01 T01401079  RH  021%=      5-min Rain = 0
KSW1 242251Z 14009KT 14/M08 A3025 RMK A01 T01401079  RH  021%=      5-min Rain = 0
KSW1 242252Z 15010KT 14/M08 A3025 RMK A01 T01391078  RH  021%=      5-min Rain = 0
KSW1 242253Z 12012KT 14/M08 A3025 RMK A01 T01391076  RH  022%=      5-min Rain = 0
KSW1 242254Z 13012KT 14/M08 A3025 RMK A01 T01401075  RH  022%=      5-min Rain = 0
KSW1 242255Z 14011KT 14/M08 A3025 RMK A01 T01401076  RH  022%=      5-min Rain = 0
KSW1 242256Z 15011KT 14/M07 A3025 RMK A01 T01401073  RH  022%=      5-min Rain = 0
KSW1 242257Z 14012KT 14/M07 A3025 RMK A01 T01411074  RH  022%=      5-min Rain = 0
KSW1 242258Z 13011KT 14/M07 A3025 RMK A01 T01411074  RH  022%=      5-min Rain = 0
KSW1 242259Z 13012G17KT 14/M08 A3025 RMK A01 T01411076  RH  021%=      5-min Rain = 0
KSW1 242300Z 14010KT 14/M08 A3025 RMK A01 T01391078  RH  021%=      5-min Rain = 0
KSW1 242301Z 15010KT 14/M08 A3024 RMK A01 T01391075  RH  022%=      5-min Rain = 0
KSW1 242302Z 15012KT 14/M08 A3024 RMK A01 T01401075  RH  022%=      5-min Rain = 0
KSW1 242303Z 15011KT 14/M07 A3024 RMK A01 T01401073  RH  022%=      5-min Rain = 0
KSW1 242304Z 15009KT 14/M07 A3024 RMK A01 T01401073  RH  022%=      5-min Rain = 0
KSW1 242305Z 14009KT 14/M07 A3024 RMK A01 T01401070  RH  023%=      5-min Rain = 0
KSW1 242306Z 15009KT 14/M07 A3024 RMK A01 T01411067  RH  023%=      5-min Rain = 0
KSW1 242307Z 13009KT 14/M07 A3024 RMK A01 T01421070  RH  022%=      5-min Rain = 0
KSW1 242308Z 14008KT 14/M07 A3024 RMK A01 T01421068  RH  023%=      5-min Rain = 0
KSW1 242309Z 14013KT 14/M07 A3024 RMK A01 T01421069  RH  023%=      5-min Rain = 0
KSW1 242310Z 14013KT 14/M07 A3024 RMK A01 T01411071  RH  022%=      5-min Rain = 0
KSW1 242311Z 14012KT 14/M07 A3024 RMK A01 T01391072  RH  022%=      5-min Rain = 0
KSW1 242312Z 14012KT 14/M07 A3024 RMK A01 T01381071  RH  023%=      5-min Rain = 0
KSW1 242313Z 14011KT 14/M07 A3024 RMK A01 T01371073  RH  023%=      5-min Rain = 0
KSW1 242314Z 14009KT 14/M07 A3024 RMK A01 T01371073  RH  023%=      5-min Rain = 0
KSW1 242315Z 13009KT 14/M07 A3024 RMK A01 T01371074  RH  022%=      5-min Rain = 0
KSW1 242316Z 12011KT 14/M07 A3025 RMK A01 T01361073  RH  023%=      5-min Rain = 0
KSW1 242317Z 12011KT 14/M08 A3025 RMK A01 T01361075  RH  022%=      5-min Rain = 0
KSW1 242318Z 12011KT 14/M08 A3025 RMK A01 T01361075  RH  022%=      5-min Rain = 0
KSW1 242319Z 12012KT 14/M07 A3025 RMK A01 T01351074  RH  023%=      5-min Rain = 0
KSW1 242320Z 14011KT 14/M07 A3025 RMK A01 T01351070  RH  023%=      5-min Rain = 0
KSW1 242321Z 14014KT 14/M07 A3024 RMK A01 T01361069  RH  024%=      5-min Rain = 0
KSW1 242322Z 13011KT 14/M07 A3025 RMK A01 T01361070  RH  023%=      5-min Rain = 0
KSW1 242323Z 13009KT 14/M07 A3025 RMK A01 T01351068  RH  024%=      5-min Rain = 0
KSW1 242324Z 14009KT 14/M07 A3024 RMK A01 T01351065  RH  024%=      5-min Rain = 0
KSW1 242325Z 14010KT 14/M07 A3024 RMK A01 T01371065  RH  024%=      5-min Rain = 0
KSW1 242326Z 14013KT 14/M07 A3024 RMK A01 T01371066  RH  024%=      5-min Rain = 0
KSW1 242327Z 15012KT 14/M07 A3024 RMK A01 T01361068  RH  024%=      5-min Rain = 0
KSW1 242328Z 16012KT 14/M07 A3024 RMK A01 T01351067  RH  024%=      5-min Rain = 0
KSW1 242329Z 15014KT 14/M07 A3024 RMK A01 T01351069  RH  024%=      5-min Rain = 0
KSW1 242330Z 15012KT 13/M07 A3024 RMK A01 T01341069  RH  024%=      5-min Rain = 0
KSW1 242331Z 15011KT 13/M07 A3024 RMK A01 T01341068  RH  024%=      5-min Rain = 0
KSW1 242332Z 16009KT 13/M07 A3024 RMK A01 T01341066  RH  024%=      5-min Rain = 0
KSW1 242333Z 14011KT 13/M07 A3024 RMK A01 T01341066  RH  024%=      5-min Rain = 0
KSW1 242334Z 13011KT 13/M07 A3024 RMK A01 T01341066  RH  024%=      5-min Rain = 0
KSW1 242335Z 14010KT 13/M07 A3024 RMK A01 T01341065  RH  024%=      5-min Rain = 0
KSW1 242336Z 15011KT 13/M06 A3024 RMK A01 T01341064  RH  025%=      5-min Rain = 0
KSW1 242337Z 15011KT 13/M07 A3024 RMK A01 T01341065  RH  025%=      5-min Rain = 0
KSW1 242338Z 14010KT 13/M06 A3024 RMK A01 T01341064  RH  025%=      5-min Rain = 0
KSW1 242339Z 14011KT 13/M06 A3024 RMK A01 T01331064  RH  025%=      5-min Rain = 0
KSW1 242340Z 15009G14KT 13/M06 A3024 RMK A01 T01331063  RH  025%=      5-min Rain = 0
KSW1 242341Z 15013KT 13/M06 A3024 RMK A01 T01331064  RH  025%=      5-min Rain = 0
KSW1 242342Z 14012KT 13/M07 A3024 RMK A01 T01321066  RH  025%=      5-min Rain = 0
KSW1 242343Z 14009KT 13/M07 A3024 RMK A01 T01321066  RH  025%=      5-min Rain = 0
KSW1 242344Z 15009KT 13/M07 A3024 RMK A01 T01321065  RH  025%=      5-min Rain = 0
KSW1 242345Z 14010KT 13/M06 A3024 RMK A01 T01321064  RH  025%=      5-min Rain = 0
KSW1 242346Z 14011KT 13/M07 A3024 RMK A01 T01321065  RH  025%=      5-min Rain = 0
KSW1 242347Z 14010KT 13/M07 A3024 RMK A01 T01321066  RH  025%=      5-min Rain = 0
KSW1 242348Z 13010KT 13/M06 A3024 RMK A01 T01311064  RH  025%=      5-min Rain = 0
KSW1 242349Z 14011KT 13/M07 A3024 RMK A01 T01311066  RH  025%=      5-min Rain = 0
KSW1 242350Z 14011KT 13/M07 A3024 RMK A01 T01301067  RH  025%=      5-min Rain = 0
KSW1 242351Z 14010KT 13/M07 A3024 RMK A01 T01291068  RH  025%=      5-min Rain = 0
KSW1 242352Z 14012KT 13/M07 A3024 RMK A01 T01281067  RH  025%=      5-min Rain = 0
KSW1 242353Z 14009KT 13/M07 A3024 RMK A01 T01271067  RH  025%=      5-min Rain = 0
KSW1 242354Z 13013KT 13/M07 A3024 RMK A01 T01261068  RH  025%=      5-min Rain = 0
KSW1 242355Z 14011KT 13/M07 A3024 RMK A01 T01251069  RH  025%=      5-min Rain = 0
KSW1 242356Z 14010KT 13/M07 A3024 RMK A01 T01251068  RH  025%=      5-min Rain = 0
KSW1 242357Z 14011KT 13/M07 A3024 RMK A01 T01251067  RH  026%=      5-min Rain = 0
KSW1 242358Z 14011KT 13/M07 A3024 RMK A01 T01251067  RH  026%=      5-min Rain = 0
KSW1 242359Z 13011KT 13/M07 A3024 RMK A01 T01251067  RH  026%=      5-min Rain = 0
KSW1 250000Z 14013KT 13/M07 A3024 RMK A01 T01251067  RH  026%=      5-min Rain = 0
KSW1 250001Z 15009KT 12/M07 A3024 RMK A01 T01241067  RH  026%=      5-min Rain = 0
KSW1 250002Z 15013KT 12/M07 A3024 RMK A01 T01241067  RH  026%=      5-min Rain = 0
KSW1 250003Z 15014KT 12/M07 A3024 RMK A01 T01241069  RH  025%=      5-min Rain = 0
KSW1 250004Z 14012KT 12/M07 A3024 RMK A01 T01241068  RH  026%=      5-min Rain = 0
KSW1 250005Z 14012KT 12/M07 A3024 RMK A01 T01241068  RH  026%=      5-min Rain = 0
KSW1 250006Z 15011KT 12/M07 A3024 RMK A01 T01241067  RH  026%=      5-min Rain = 0
KSW1 250007Z 14009KT 12/M07 A3024 RMK A01 T01231067  RH  026%=      5-min Rain = 0
KSW1 250008Z 14011KT 12/M07 A3024 RMK A01 T01231066  RH  026%=      5-min Rain = 0
KSW1 250009Z 14010KT 12/M07 A3024 RMK A01 T01231065  RH  026%=      5-min Rain = 0
KSW1 250010Z 14009KT 12/M07 A3024 RMK A01 T01221065  RH  027%=      5-min Rain = 0
KSW1 250011Z 14011KT 12/M07 A3024 RMK A01 T01211066  RH  026%=      5-min Rain = 0
KSW1 250012Z 13010KT 12/M07 A3024 RMK A01 T01211065  RH  027%=      5-min Rain = 0
KSW1 250013Z 14009KT 12/M07 A3024 RMK A01 T01211065  RH  027%=      5-min Rain = 0
KSW1 250014Z 14009KT 12/M07 A3024 RMK A01 T01201065  RH  027%=      5-min Rain = 0
KSW1 250015Z 13007KT 12/M07 A3024 RMK A01 T01201065  RH  027%=      5-min Rain = 0
KSW1 250016Z 13009KT 12/M06 A3024 RMK A01 T01191064  RH  027%=      5-min Rain = 0
KSW1 250017Z 13008KT 12/M07 A3024 RMK A01 T01191065  RH  027%=      5-min Rain = 0
KSW1 250018Z 14007KT 12/M06 A3024 RMK A01 T01181064  RH  027%=      5-min Rain = 0
KSW1 250019Z 13008KT 12/M06 A3024 RMK A01 T01171063  RH  028%=      5-min Rain = 0
KSW1 250020Z 13007KT 12/M06 A3024 RMK A01 T01161063  RH  028%=      5-min Rain = 0
KSW1 250021Z 14008KT 12/M06 A3024 RMK A01 T01151063  RH  028%=      5-min Rain = 0
KSW1 250022Z 14009KT 12/M06 A3025 RMK A01 T01151063  RH  028%=      5-min Rain = 0
KSW1 250023Z 14009KT 11/M06 A3025 RMK A01 T01141063  RH  028%=      5-min Rain = 0
KSW1 250024Z 14008KT 12/M06 A3025 RMK A01 T01151062  RH  028%=      5-min Rain = 0
KSW1 250025Z 14009KT 11/M06 A3025 RMK A01 T01141062  RH  029%=      5-min Rain = 0
KSW1 250026Z 14009KT 11/M06 A3025 RMK A01 T01131062  RH  029%=      5-min Rain = 0
KSW1 250027Z 14009KT 11/M06 A3025 RMK A01 T01131062  RH  029%=      5-min Rain = 0
KSW1 250028Z 14008KT 11/M06 A3025 RMK A01 T01131062  RH  029%=      5-min Rain = 0
KSW1 250029Z 13008KT 11/M06 A3025 RMK A01 T01131061  RH  029%=      5-min Rain = 0
KSW1 250030Z 14007KT 11/M06 A3025 RMK A01 T01111061  RH  029%=      5-min Rain = 0
KSW1 250031Z 14007KT 11/M06 A3025 RMK A01 T01101061  RH  030%=      5-min Rain = 0
KSW1 250032Z 14008KT 11/M06 A3025 RMK A01 T01091061  RH  030%=      5-min Rain = 0
KSW1 250033Z 14007KT 11/M06 A3025 RMK A01 T01091060  RH  030%=      5-min Rain = 0
KSW1 250034Z 14006KT 11/M06 A3025 RMK A01 T01081060  RH  030%=      5-min Rain = 0
KSW1 250035Z 14007KT 11/M06 A3025 RMK A01 T01061059  RH  031%=      5-min Rain = 0
KSW1 250036Z 14007KT 11/M06 A3025 RMK A01 T01051060  RH  031%=      5-min Rain = 0
KSW1 250037Z 13007KT 10/M06 A3025 RMK A01 T01031059  RH  031%=      5-min Rain = 0
KSW1 250038Z 13007KT 10/M06 A3025 RMK A01 T01031060  RH  031%=      5-min Rain = 0
KSW1 250039Z 13007KT 10/M06 A3025 RMK A01 T01031059  RH  031%=      5-min Rain = 0
KSW1 250040Z 13006KT 10/M06 A3025 RMK A01 T01031059  RH  032%=      5-min Rain = 0
KSW1 250041Z 13006KT 10/M06 A3025 RMK A01 T01021058  RH  032%=      5-min Rain = 0
KSW1 250042Z 13006KT 10/M06 A3025 RMK A01 T01001058  RH  032%=      5-min Rain = 0
KSW1 250043Z 13006KT 10/M06 A3025 RMK A01 T00991058  RH  032%=      5-min Rain = 0
KSW1 250044Z 13007KT 10/M06 A3025 RMK A01 T00981058  RH  033%=      5-min Rain = 0
KSW1 250045Z 13006KT 10/M06 A3025 RMK A01 T00971058  RH  033%=      5-min Rain = 0
KSW1 250046Z 13006KT 10/M06 A3025 RMK A01 T00961058  RH  033%=      5-min Rain = 0
KSW1 250047Z 12006KT 09/M06 A3025 RMK A01 T00941058  RH  034%=      5-min Rain = 0
KSW1 250048Z 13006KT 09/M06 A3025 RMK A01 T00931057  RH  034%=      5-min Rain = 0
KSW1 250049Z 13006KT 09/M06 A3025 RMK A01 T00911057  RH  034%=      5-min Rain = 0
KSW1 250050Z 13007KT 09/M06 A3025 RMK A01 T00911057  RH  035%=      5-min Rain = 0
KSW1 250051Z 12007KT 09/M06 A3025 RMK A01 T00901057  RH  035%=      5-min Rain = 0
KSW1 250052Z 12007KT 09/M06 A3025 RMK A01 T00901057  RH  035%=      5-min Rain = 0
KSW1 250053Z 12007KT 09/M06 A3025 RMK A01 T00901057  RH  035%=      5-min Rain = 0
KSW1 250054Z 12007KT 09/M06 A3025 RMK A01 T00881057  RH  035%=      5-min Rain = 0
KSW1 250055Z 12007KT 09/M06 A3025 RMK A01 T00871056  RH  036%=      5-min Rain = 0
KSW1 250056Z 12006KT 09/M06 A3025 RMK A01 T00871056  RH  036%=      5-min Rain = 0
KSW1 250057Z 12006KT 09/M06 A3025 RMK A01 T00871056  RH  036%=      5-min Rain = 0
KSW1 250058Z 12006KT 09/M06 A3025 RMK A01 T00861056  RH  036%=      5-min Rain = 0
KSW1 250059Z 12007KT 09/M06 A3025 RMK A01 T00851056  RH  036%=      5-min Rain = 0
KSW1 250100Z 12007KT 08/M06 A3025 RMK A01 T00841056  RH  037%=      5-min Rain = 0
KSW1 250101Z 12007KT 08/M06 A3025 RMK A01 T00831056  RH  037%=      5-min Rain = 0
KSW1 250102Z 12007KT 08/M06 A3025 RMK A01 T00821056  RH  037%=      5-min Rain = 0
KSW1 250103Z 12007KT 08/M06 A3025 RMK A01 T00811055  RH  037%=      5-min Rain = 0
KSW1 250104Z 12007KT 08/M06 A3025 RMK A01 T00811055  RH  038%=      5-min Rain = 0
KSW1 250105Z 12007KT 08/M06 A3025 RMK A01 T00811055  RH  038%=      5-min Rain = 0
KSW1 250106Z 12006KT 08/M06 A3025 RMK A01 T00801055  RH  038%=      5-min Rain = 0
KSW1 250107Z 12007KT 08/M06 A3025 RMK A01 T00781055  RH  038%=      5-min Rain = 0
KSW1 250108Z 12007KT 08/M06 A3025 RMK A01 T00781055  RH  038%=      5-min Rain = 0
KSW1 250109Z 12007KT 08/M06 A3025 RMK A01 T00771055  RH  039%=      5-min Rain = 0
KSW1 250110Z 12007KT 08/M06 A3025 RMK A01 T00771055  RH  039%=      5-min Rain = 0
KSW1 250111Z 12007KT 08/M06 A3025 RMK A01 T00771055  RH  039%=      5-min Rain = 0
KSW1 250112Z 12007KT 08/M06 A3025 RMK A01 T00761055  RH  039%=      5-min Rain = 0
KSW1 250113Z 12007KT 08/M06 A3025 RMK A01 T00761055  RH  039%=      5-min Rain = 0
KSW1 250114Z 13007KT 08/M05 A3026 RMK A01 T00761054  RH  039%=      5-min Rain = 0
KSW1 250115Z 12007KT 08/M06 A3026 RMK A01 T00751055  RH  039%=      5-min Rain = 0
KSW1 250116Z 13008KT 08/M05 A3026 RMK A01 T00751054  RH  039%=      5-min Rain = 0
KSW1 250117Z 12008KT 08/M05 A3026 RMK A01 T00751054  RH  039%=      5-min Rain = 0
KSW1 250118Z 12007KT 08/M05 A3026 RMK A01 T00751054  RH  039%=      5-min Rain = 0
KSW1 250119Z 12007KT 08/M05 A3026 RMK A01 T00751054  RH  039%=      5-min Rain = 0
KSW1 250120Z 12007KT 08/M05 A3026 RMK A01 T00751054  RH  040%=      5-min Rain = 0
KSW1 250121Z 12007KT 07/M05 A3026 RMK A01 T00731054  RH  040%=      5-min Rain = 0
KSW1 250122Z 12007KT 07/M06 A3026 RMK A01 T00721055  RH  040%=      5-min Rain = 0
KSW1 250123Z 12007KT 07/M05 A3026 RMK A01 T00721054  RH  040%=      5-min Rain = 0
KSW1 250124Z 13008KT 07/M05 A3026 RMK A01 T00711054  RH  040%=      5-min Rain = 0
KSW1 250125Z 12008KT 07/M05 A3025 RMK A01 T00711054  RH  041%=      5-min Rain = 0
KSW1 250126Z 12008KT 07/M05 A3025 RMK A01 T00711054  RH  041%=      5-min Rain = 0
KSW1 250127Z 12008KT 07/M05 A3025 RMK A01 T00711054  RH  041%=      5-min Rain = 0
KSW1 250128Z 12007KT 07/M05 A3025 RMK A01 T00701054  RH  041%=      5-min Rain = 0
KSW1 250129Z 12008KT 07/M05 A3025 RMK A01 T00701054  RH  041%=      5-min Rain = 0
KSW1 250130Z 12008KT 07/M05 A3025 RMK A01 T00691054  RH  041%=      5-min Rain = 0
KSW1 250131Z 12008KT 07/M05 A3025 RMK A01 T00691054  RH  041%=      5-min Rain = 0
KSW1 250132Z 12008KT 07/M05 A3025 RMK A01 T00681054  RH  042%=      5-min Rain = 0
KSW1 250133Z 12008KT 07/M05 A3025 RMK A01 T00681053  RH  042%=      5-min Rain = 0
KSW1 250134Z 12008KT 07/M05 A3025 RMK A01 T00681053  RH  042%=      5-min Rain = 0
KSW1 250135Z 13008KT 07/M05 A3025 RMK A01 T00671053  RH  042%=      5-min Rain = 0
KSW1 250136Z 13008KT 07/M05 A3025 RMK A01 T00671053  RH  042%=      5-min Rain = 0
KSW1 250137Z 12008KT 07/M05 A3025 RMK A01 T00671052  RH  042%=      5-min Rain = 0
KSW1 250138Z 12008KT 07/M05 A3025 RMK A01 T00671052  RH  042%=      5-min Rain = 0
KSW1 250139Z 12008KT 07/M05 A3025 RMK A01 T00661052  RH  043%=      5-min Rain = 0
KSW1 250140Z 12008KT 07/M05 A3025 RMK A01 T00661052  RH  043%=      5-min Rain = 0
KSW1 250141Z 12009KT 07/M05 A3025 RMK A01 T00661052  RH  043%=      5-min Rain = 0
KSW1 250142Z 12009KT 07/M05 A3025 RMK A01 T00661052  RH  043%=      5-min Rain = 0
KSW1 250143Z 12008KT 07/M05 A3025 RMK A01 T00661051  RH  043%=      5-min Rain = 0
KSW1 250144Z 12009KT 07/M05 A3025 RMK A01 T00671051  RH  043%=      5-min Rain = 0
KSW1 250145Z 12009KT 07/M05 A3025 RMK A01 T00671051  RH  043%=      5-min Rain = 0
KSW1 250146Z 12009KT 07/M05 A3025 RMK A01 T00671051  RH  043%=      5-min Rain = 0
KSW1 250147Z 12009KT 07/M05 A3025 RMK A01 T00671051  RH  043%=      5-min Rain = 0
KSW1 250148Z 12009KT 07/M05 A3025 RMK A01 T00671051  RH  043%=      5-min Rain = 0
KSW1 250149Z 12009KT 07/M05 A3025 RMK A01 T00681051  RH  042%=      5-min Rain = 0
KSW1 250150Z 12009KT 07/M05 A3025 RMK A01 T00681051  RH  042%=      5-min Rain = 0
KSW1 250151Z 12009KT 07/M05 A3025 RMK A01 T00681051  RH  043%=      5-min Rain = 0
KSW1 250152Z 12009KT 07/M05 A3025 RMK A01 T00671051  RH  043%=      5-min Rain = 0
KSW1 250153Z 12009KT 07/M05 A3025 RMK A01 T00661051  RH  043%=      5-min Rain = 0
KSW1 250154Z 12010KT 07/M05 A3024 RMK A01 T00671052  RH  043%=      5-min Rain = 0
KSW1 250155Z 12010KT 07/M05 A3024 RMK A01 T00681052  RH  042%=      5-min Rain = 0
KSW1 250156Z 12010KT 07/M05 A3024 RMK A01 T00681052  RH  042%=      5-min Rain = 0
KSW1 250157Z 12010KT 07/M05 A3024 RMK A01 T00691052  RH  042%=      5-min Rain = 0
KSW1 250158Z 12010KT 07/M05 A3024 RMK A01 T00691052  RH  042%=      5-min Rain = 0
KSW1 250159Z 12010KT 07/M05 A3024 RMK A01 T00701052  RH  042%=      5-min Rain = 0
KSW1 250200Z 12010KT 07/M05 A3024 RMK A01 T00691052  RH  042%=      5-min Rain = 0
KSW1 250201Z 12010KT 07/M05 A3024 RMK A01 T00691052  RH  042%=      5-min Rain = 0
KSW1 250202Z 12010KT 07/M05 A3024 RMK A01 T00691052  RH  042%=      5-min Rain = 0
KSW1 250203Z 12010KT 07/M05 A3024 RMK A01 T00691053  RH  042%=      5-min Rain = 0
KSW1 250204Z 12010KT 07/M05 A3024 RMK A01 T00681053  RH  041%=      5-min Rain = 0
KSW1 250205Z 12010KT 07/M05 A3024 RMK A01 T00691054  RH  041%=      5-min Rain = 0
KSW1 250206Z 12010KT 07/M06 A3024 RMK A01 T00691055  RH  041%=      5-min Rain = 0
KSW1 250207Z 12011KT 07/M06 A3024 RMK A01 T00701055  RH  041%=      5-min Rain = 0
KSW1 250208Z 12010KT 07/M06 A3024 RMK A01 T00711055  RH  040%=      5-min Rain = 0
KSW1 250209Z 12010KT 07/M06 A3024 RMK A01 T00711055  RH  040%=      5-min Rain = 0
KSW1 250210Z 12010KT 07/M06 A3024 RMK A01 T00711056  RH  040%=      5-min Rain = 0
KSW1 250211Z 12010KT 07/M06 A3024 RMK A01 T00721056  RH  040%=      5-min Rain = 0
KSW1 250212Z 12010KT 07/M06 A3024 RMK A01 T00721056  RH  040%=      5-min Rain = 0
KSW1 250213Z 12010KT 07/M06 A3024 RMK A01 T00721056  RH  040%=      5-min Rain = 0
KSW1 250214Z 12010KT 07/M06 A3024 RMK A01 T00721056  RH  040%=      5-min Rain = 0
KSW1 250215Z 12010KT 07/M06 A3024 RMK A01 T00711056  RH  040%=      5-min Rain = 0
KSW1 250216Z 12010KT 07/M06 A3024 RMK A01 T00711056  RH  040%=      5-min Rain = 0
KSW1 250217Z 12010KT 07/M06 A3024 RMK A01 T00711056  RH  040%=      5-min Rain = 0
KSW1 250218Z 12010KT 07/M06 A3024 RMK A01 T00711056  RH  040%=      5-min Rain = 0
KSW1 250219Z 12010KT 07/M06 A3024 RMK A01 T00711057  RH  040%=      5-min Rain = 0
KSW1 250220Z 12010KT 07/M06 A3024 RMK A01 T00721057  RH  040%=      5-min Rain = 0
KSW1 250221Z 12010KT 07/M06 A3024 RMK A01 T00721057  RH  039%=      5-min Rain = 0
KSW1 250222Z 13010KT 07/M06 A3024 RMK A01 T00731057  RH  039%=      5-min Rain = 0
KSW1 250223Z 13010KT 07/M06 A3024 RMK A01 T00731057  RH  039%=      5-min Rain = 0
KSW1 250224Z 13012KT 07/M06 A3024 RMK A01 T00741058  RH  039%=      5-min Rain = 0
KSW1 250225Z 13011KT 08/M06 A3024 RMK A01 T00761058  RH  038%=      5-min Rain = 0
KSW1 250226Z 12011KT 08/M06 A3024 RMK A01 T00771058  RH  038%=      5-min Rain = 0
KSW1 250227Z 12010KT 08/M06 A3024 RMK A01 T00771058  RH  038%=      5-min Rain = 0
KSW1 250228Z 13010KT 08/M06 A3024 RMK A01 T00771058  RH  038%=      5-min Rain = 0
KSW1 250229Z 13011KT 08/M06 A3024 RMK A01 T00771058  RH  038%=      5-min Rain = 0
KSW1 250230Z 13011KT 08/M06 A3024 RMK A01 T00771058  RH  038%=      5-min Rain = 0
KSW1 250231Z 13011KT 08/M06 A3024 RMK A01 T00771058  RH  038%=      5-min Rain = 0
KSW1 250232Z 13010KT 08/M06 A3024 RMK A01 T00771059  RH  038%=      5-min Rain = 0
KSW1 250233Z 13010KT 08/M06 A3024 RMK A01 T00771058  RH  038%=      5-min Rain = 0
KSW1 250234Z 13010KT 08/M06 A3024 RMK A01 T00771059  RH  038%=      5-min Rain = 0
KSW1 250235Z 13010KT 08/M06 A3024 RMK A01 T00761059  RH  038%=      5-min Rain = 0
KSW1 250236Z 13010KT 08/M06 A3024 RMK A01 T00761059  RH  038%=      5-min Rain = 0
KSW1 250237Z 13011KT 08/M06 A3024 RMK A01 T00761059  RH  038%=      5-min Rain = 0
KSW1 250238Z 13011KT 08/M06 A3024 RMK A01 T00751058  RH  038%=      5-min Rain = 0
KSW1 250239Z 13012KT 08/M06 A3024 RMK A01 T00761059  RH  038%=      5-min Rain = 0
KSW1 250240Z 13011KT 08/M06 A3024 RMK A01 T00781059  RH  037%=      5-min Rain = 0
KSW1 250241Z 13011KT 08/M06 A3024 RMK A01 T00781059  RH  037%=      5-min Rain = 0
KSW1 250242Z 13013KT 08/M06 A3024 RMK A01 T00791059  RH  037%=      5-min Rain = 0
KSW1 250243Z 13012KT 08/M06 A3024 RMK A01 T00801059  RH  037%=      5-min Rain = 0
KSW1 250244Z 13012KT 08/M06 A3024 RMK A01 T00811059  RH  036%=      5-min Rain = 0
KSW1 250245Z 13012KT 08/M06 A3024 RMK A01 T00811059  RH  036%=      5-min Rain = 0
KSW1 250246Z 13012KT 08/M06 A3024 RMK A01 T00811059  RH  036%=      5-min Rain = 0
KSW1 250247Z 13012KT 08/M06 A3024 RMK A01 T00811059  RH  036%=      5-min Rain = 0
KSW1 250248Z 13012KT 08/M06 A3024 RMK A01 T00811060  RH  036%=      5-min Rain = 0
KSW1 250249Z 13011KT 08/M06 A3024 RMK A01 T00811059  RH  036%=      5-min Rain = 0
KSW1 250250Z 13012KT 08/M06 A3024 RMK A01 T00811059  RH  036%=      5-min Rain = 0
KSW1 250251Z 13012KT 08/M06 A3024 RMK A01 T00811059  RH  036%=      5-min Rain = 0
KSW1 250252Z 13012KT 08/M06 A3024 RMK A01 T00811060  RH  036%=      5-min Rain = 0
KSW1 250253Z 13010KT 08/M06 A3024 RMK A01 T00811060  RH  036%=      5-min Rain = 0
KSW1 250254Z 13013KT 08/M06 A3024 RMK A01 T00811060  RH  036%=      5-min Rain = 0
KSW1 250255Z 13012KT 08/M06 A3024 RMK A01 T00821059  RH  036%=      5-min Rain = 0
KSW1 250256Z 13012KT 08/M06 A3024 RMK A01 T00821059  RH  036%=      5-min Rain = 0
KSW1 250257Z 12012KT 08/M06 A3024 RMK A01 T00821059  RH  036%=      5-min Rain = 0
KSW1 250258Z 13011KT 08/M06 A3024 RMK A01 T00821059  RH  036%=      5-min Rain = 0
KSW1 250259Z 12010KT 08/M06 A3024 RMK A01 T00801059  RH  037%=      5-min Rain = 0
KSW1 250300Z 13012KT 08/M06 A3024 RMK A01 T00801058  RH  037%=      5-min Rain = 0
KSW1 250301Z 12012KT 08/M06 A3024 RMK A01 T00791059  RH  037%=      5-min Rain = 0
KSW1 250302Z 12012KT 08/M06 A3024 RMK A01 T00801059  RH  037%=      5-min Rain = 0
KSW1 250303Z 12012KT 08/M06 A3024 RMK A01 T00801058  RH  037%=      5-min Rain = 0
KSW1 250304Z 13012KT 08/M06 A3024 RMK A01 T00791058  RH  037%=      5-min Rain = 0
KSW1 250305Z 12012KT 08/M06 A3024 RMK A01 T00791058  RH  037%=      5-min Rain = 0
KSW1 250306Z 13011KT 08/M06 A3024 RMK A01 T00781058  RH  037%=      5-min Rain = 0
KSW1 250307Z 12011KT 08/M06 A3024 RMK A01 T00771058  RH  038%=      5-min Rain = 0
KSW1 250308Z 12010KT 08/M06 A3024 RMK A01 T00771058  RH  038%=      5-min Rain = 0
KSW1 250309Z 13011KT 08/M06 A3024 RMK A01 T00761058  RH  038%=      5-min Rain = 0
KSW1 250310Z 12012KT 08/M06 A3024 RMK A01 T00761058  RH  038%=      5-min Rain = 0
KSW1 250311Z 12012KT 08/M06 A3024 RMK A01 T00761058  RH  038%=      5-min Rain = 0
KSW1 250312Z 13012KT 08/M06 A3024 RMK A01 T00761058  RH  038%=      5-min Rain = 0
KSW1 250313Z 12010KT 08/M06 A3024 RMK A01 T00761058  RH  038%=      5-min Rain = 0
KSW1 250314Z 12012KT 08/M06 A3024 RMK A01 T00761058  RH  038%=      5-min Rain = 0
KSW1 250315Z 12011KT 08/M06 A3024 RMK A01 T00771058  RH  038%=      5-min Rain = 0
KSW1 250316Z 13012KT 08/M06 A3024 RMK A01 T00771058  RH  038%=      5-min Rain = 0
KSW1 250317Z 12012KT 08/M06 A3024 RMK A01 T00771058  RH  038%=      5-min Rain = 0
KSW1 250318Z 12011KT 08/M06 A3024 RMK A01 T00781058  RH  038%=      5-min Rain = 0
KSW1 250319Z 13012KT 08/M06 A3024 RMK A01 T00781058  RH  038%=      5-min Rain = 0
KSW1 250320Z 13012KT 08/M06 A3024 RMK A01 T00781058  RH  038%=      5-min Rain = 0
KSW1 250321Z 13012KT 08/M06 A3024 RMK A01 T00781058  RH  038%=      5-min Rain = 0
KSW1 250322Z 13013KT 08/M06 A3024 RMK A01 T00781058  RH  038%=      5-min Rain = 0
KSW1 250323Z 13012KT 08/M06 A3024 RMK A01 T00781058  RH  037%=      5-min Rain = 0
KSW1 250324Z 12013KT 08/M06 A3024 RMK A01 T00791058  RH  037%=      5-min Rain = 0
KSW1 250325Z 12013KT 08/M06 A3024 RMK A01 T00791058  RH  037%=      5-min Rain = 0
KSW1 250326Z 13013KT 08/M06 A3024 RMK A01 T00791058  RH  037%=      5-min Rain = 0
KSW1 250327Z 13014KT 08/M06 A3024 RMK A01 T00781058  RH  037%=      5-min Rain = 0
KSW1 250328Z 13013KT 08/M06 A3024 RMK A01 T00791058  RH  037%=      5-min Rain = 0
KSW1 250329Z 12012KT 08/M06 A3024 RMK A01 T00791058  RH  037%=      5-min Rain = 0
KSW1 250330Z 13012KT 08/M06 A3024 RMK A01 T00791057  RH  037%=      5-min Rain = 0
KSW1 250331Z 12013KT 08/M06 A3024 RMK A01 T00791057  RH  038%=      5-min Rain = 0
KSW1 250332Z 13012KT 08/M06 A3024 RMK A01 T00781057  RH  038%=      5-min Rain = 0
KSW1 250333Z 13011KT 08/M06 A3024 RMK A01 T00781057  RH  038%=      5-min Rain = 0
KSW1 250334Z 12014KT 08/M06 A3024 RMK A01 T00781057  RH  038%=      5-min Rain = 0
KSW1 250335Z 12013KT 08/M06 A3024 RMK A01 T00781057  RH  038%=      5-min Rain = 0
KSW1 250336Z 13015KT 08/M06 A3024 RMK A01 T00791057  RH  037%=      5-min Rain = 0
KSW1 250337Z 13014KT 08/M06 A3024 RMK A01 T00801058  RH  037%=      5-min Rain = 0
KSW1 250338Z 12011KT 08/M06 A3024 RMK A01 T00801057  RH  037%=      5-min Rain = 0
KSW1 250339Z 12011KT 08/M06 A3024 RMK A01 T00781057  RH  038%=      5-min Rain = 0
KSW1 250340Z 12012KT 08/M06 A3024 RMK A01 T00771057  RH  038%=      5-min Rain = 0
KSW1 250341Z 13011KT 08/M06 A3024 RMK A01 T00771057  RH  038%=      5-min Rain = 0
KSW1 250342Z 13011KT 08/M06 A3024 RMK A01 T00771057  RH  038%=      5-min Rain = 0
KSW1 250343Z 12010KT 08/M06 A3024 RMK A01 T00771057  RH  038%=      5-min Rain = 0
KSW1 250344Z 13011KT 08/M06 A3024 RMK A01 T00751057  RH  039%=      5-min Rain = 0
KSW1 250345Z 13011KT 08/M06 A3024 RMK A01 T00751057  RH  039%=      5-min Rain = 0
KSW1 250346Z 12011KT 08/M06 A3024 RMK A01 T00751057  RH  039%=      5-min Rain = 0
KSW1 250347Z 13010KT 08/M06 A3024 RMK A01 T00751056  RH  039%=      5-min Rain = 0
KSW1 250348Z 13012KT 07/M06 A3024 RMK A01 T00741056  RH  039%=      5-min Rain = 0
KSW1 250349Z 13011KT 07/M06 A3024 RMK A01 T00741056  RH  039%=      5-min Rain = 0
KSW1 250350Z 13011KT 07/M06 A3024 RMK A01 T00731056  RH  039%=      5-min Rain = 0
KSW1 250351Z 13012KT 07/M06 A3024 RMK A01 T00731056  RH  039%=      5-min Rain = 0
KSW1 250352Z 13012KT 07/M06 A3024 RMK A01 T00731057  RH  039%=      5-min Rain = 0
KSW1 250353Z 13012KT 07/M06 A3024 RMK A01 T00731057  RH  039%=      5-min Rain = 0
KSW1 250354Z 13011KT 07/M06 A3024 RMK A01 T00731057  RH  039%=      5-min Rain = 0
KSW1 250355Z 12012KT 07/M06 A3024 RMK A01 T00731057  RH  039%=      5-min Rain = 0
KSW1 250356Z 12011KT 07/M06 A3024 RMK A01 T00731057  RH  039%=      5-min Rain = 0
KSW1 250357Z 12011KT 07/M06 A3024 RMK A01 T00731057  RH  039%=      5-min Rain = 0
KSW1 250358Z 12011KT 07/M06 A3024 RMK A01 T00731056  RH  039%=      5-min Rain = 0
KSW1 250359Z 13013KT 07/M06 A3025 RMK A01 T00731056  RH  039%=      5-min Rain = 0
KSW1 250400Z 12012KT 07/M06 A3025 RMK A01 T00731056  RH  039%=      5-min Rain = 0
KSW1 250401Z 12011KT 07/M06 A3025 RMK A01 T00731057  RH  039%=      5-min Rain = 0
KSW1 250402Z 12011KT 07/M06 A3025 RMK A01 T00741056  RH  039%=      5-min Rain = 0
KSW1 250403Z 12012KT 07/M06 A3025 RMK A01 T00731057  RH  039%=      5-min Rain = 0
KSW1 250404Z 12012KT 07/M06 A3025 RMK A01 T00731057  RH  039%=      5-min Rain = 0
KSW1 250405Z 12013G18KT 07/M06 A3025 RMK A01 T00731057  RH  039%=      5-min Rain = 0
KSW1 250406Z 12011KT 07/M06 A3025 RMK A01 T00741057  RH  039%=      5-min Rain = 0
KSW1 250407Z 12010KT 07/M06 A3025 RMK A01 T00741057  RH  039%=      5-min Rain = 0
KSW1 250408Z 12011KT 07/M06 A3025 RMK A01 T00731056  RH  039%=      5-min Rain = 0
KSW1 250409Z 12011KT 07/M06 A3025 RMK A01 T00731057  RH  039%=      5-min Rain = 0
KSW1 250410Z 12012KT 07/M06 A3025 RMK A01 T00721056  RH  039%=      5-min Rain = 0
KSW1 250411Z 12012KT 07/M06 A3025 RMK A01 T00721057  RH  039%=      5-min Rain = 0
KSW1 250412Z 12012KT 07/M06 A3025 RMK A01 T00721057  RH  039%=      5-min Rain = 0
KSW1 250413Z 12010KT 07/M06 A3025 RMK A01 T00721057  RH  039%=      5-min Rain = 0
KSW1 250414Z 12013KT 07/M06 A3025 RMK A01 T00721057  RH  040%=      5-min Rain = 0
KSW1 250415Z 12012KT 07/M06 A3025 RMK A01 T00721057  RH  039%=      5-min Rain = 0
KSW1 250416Z 12012KT 07/M06 A3025 RMK A01 T00731057  RH  039%=      5-min Rain = 0
KSW1 250417Z 12012KT 07/M06 A3025 RMK A01 T00731057  RH  039%=      5-min Rain = 0
KSW1 250418Z 12012KT 07/M06 A3025 RMK A01 T00731057  RH  039%=      5-min Rain = 0
KSW1 250419Z 12013KT 07/M06 A3025 RMK A01 T00731057  RH  039%=      5-min Rain = 0
KSW1 250420Z 12012KT 07/M06 A3025 RMK A01 T00731057  RH  039%=      5-min Rain = 0
KSW1 250421Z 12012KT 07/M06 A3025 RMK A01 T00731057  RH  039%=      5-min Rain = 0
KSW1 250422Z 12012KT 07/M06 A3025 RMK A01 T00731057  RH  039%=      5-min Rain = 0
KSW1 250423Z 12011KT 07/M06 A3025 RMK A01 T00721057  RH  039%=      5-min Rain = 0
KSW1 250424Z 12012KT 07/M06 A3025 RMK A01 T00721057  RH  040%=      5-min Rain = 0
KSW1 250425Z 12012KT 07/M06 A3025 RMK A01 T00711057  RH  040%=      5-min Rain = 0
KSW1 250426Z 12013KT 07/M06 A3025 RMK A01 T00711057  RH  040%=      5-min Rain = 0
KSW1 250427Z 12011KT 07/M06 A3025 RMK A01 T00711057  RH  040%=      5-min Rain = 0
KSW1 250428Z 12012KT 07/M06 A3025 RMK A01 T00711057  RH  040%=      5-min Rain = 0
KSW1 250429Z 12011KT 07/M06 A3025 RMK A01 T00701057  RH  040%=      5-min Rain = 0
KSW1 250430Z 12012KT 07/M06 A3026 RMK A01 T00701057  RH  040%=      5-min Rain = 0
KSW1 250431Z 12011KT 07/M06 A3026 RMK A01 T00711057  RH  040%=      5-min Rain = 0
KSW1 250432Z 12012KT 07/M06 A3026 RMK A01 T00701057  RH  040%=      5-min Rain = 0
KSW1 250433Z 12012KT 07/M06 A3026 RMK A01 T00701057  RH  040%=      5-min Rain = 0
KSW1 250434Z 12012KT 07/M06 A3026 RMK A01 T00701057  RH  040%=      5-min Rain = 0
KSW1 250435Z 12012KT 07/M06 A3026 RMK A01 T00701057  RH  040%=      5-min Rain = 0
KSW1 250436Z 12011KT 07/M06 A3025 RMK A01 T00701056  RH  040%=      5-min Rain = 0
KSW1 250437Z 12010KT 07/M06 A3026 RMK A01 T00691056  RH  040%=      5-min Rain = 0
KSW1 250438Z 13011KT 07/M06 A3026 RMK A01 T00681056  RH  041%=      5-min Rain = 0
KSW1 250439Z 12011KT 07/M06 A3026 RMK A01 T00681056  RH  041%=      5-min Rain = 0
KSW1 250440Z 12010KT 07/M06 A3026 RMK A01 T00681056  RH  041%=      5-min Rain = 0
KSW1 250441Z 12011KT 07/M06 A3026 RMK A01 T00681057  RH  041%=      5-min Rain = 0
KSW1 250442Z 12011KT 07/M06 A3026 RMK A01 T00681057  RH  041%=      5-min Rain = 0
KSW1 250443Z 12011KT 07/M06 A3026 RMK A01 T00681057  RH  040%=      5-min Rain = 0
KSW1 250444Z 12012KT 07/M06 A3025 RMK A01 T00681057  RH  040%=      5-min Rain = 0
KSW1 250445Z 12011KT 07/M06 A3026 RMK A01 T00691057  RH  040%=      5-min Rain = 0
KSW1 250446Z 12012KT 07/M06 A3026 RMK A01 T00691058  RH  040%=      5-min Rain = 0
KSW1 250447Z 13011KT 07/M06 A3025 RMK A01 T00691057  RH  040%=      5-min Rain = 0
KSW1 250448Z 12012KT 07/M06 A3025 RMK A01 T00681057  RH  040%=      5-min Rain = 0
KSW1 250449Z 12011KT 07/M06 A3025 RMK A01 T00681058  RH  040%=      5-min Rain = 0
KSW1 250450Z 12012KT 07/M06 A3025 RMK A01 T00681058  RH  040%=      5-min Rain = 0
KSW1 250451Z 12010KT 07/M06 A3025 RMK A01 T00681058  RH  040%=      5-min Rain = 0
KSW1 250452Z 13012KT 07/M06 A3025 RMK A01 T00681058  RH  040%=      5-min Rain = 0
KSW1 250453Z 12010KT 07/M06 A3025 RMK A01 T00681058  RH  040%=      5-min Rain = 0
KSW1 250454Z 13011KT 07/M06 A3026 RMK A01 T00681058  RH  040%=      5-min Rain = 0
KSW1 250455Z 13010KT 07/M06 A3026 RMK A01 T00671058  RH  040%=      5-min Rain = 0
KSW1 250456Z 13012KT 07/M06 A3026 RMK A01 T00671058  RH  040%=      5-min Rain = 0
KSW1 250457Z 13011KT 07/M06 A3026 RMK A01 T00671059  RH  040%=      5-min Rain = 0
KSW1 250458Z 13012KT 07/M06 A3026 RMK A01 T00671059  RH  040%=      5-min Rain = 0
KSW1 250459Z 13010KT 07/M06 A3026 RMK A01 T00671059  RH  040%=      5-min Rain = 0
KSW1 250500Z 13011KT 07/M06 A3026 RMK A01 T00671059  RH  040%=      5-min Rain = 0
KSW1 250501Z 13011KT 07/M06 A3026 RMK A01 T00671059  RH  040%=      5-min Rain = 0
KSW1 250502Z 13012KT 07/M06 A3026 RMK A01 T00671059  RH  040%=      5-min Rain = 0
KSW1 250503Z 13013KT 07/M06 A3025 RMK A01 T00671059  RH  040%=      5-min Rain = 0
KSW1 250504Z 13011KT 07/M06 A3025 RMK A01 T00681059  RH  040%=      5-min Rain = 0
KSW1 250505Z 13012KT 07/M06 A3025 RMK A01 T00681059  RH  040%=      5-min Rain = 0
KSW1 250506Z 13011KT 07/M06 A3025 RMK A01 T00671060  RH  040%=      5-min Rain = 0
KSW1 250507Z 13012KT 07/M06 A3025 RMK A01 T00671060  RH  040%=      5-min Rain = 0
KSW1 250508Z 13013KT 07/M06 A3025 RMK A01 T00671060  RH  040%=      5-min Rain = 0
KSW1 250509Z 13013KT 07/M06 A3025 RMK A01 T00681060  RH  040%=      5-min Rain = 0
KSW1 250510Z 13011KT 07/M06 A3025 RMK A01 T00681060  RH  040%=      5-min Rain = 0
KSW1 250511Z 13013KT 07/M06 A3025 RMK A01 T00681060  RH  040%=      5-min Rain = 0
KSW1 250512Z 13012KT 07/M06 A3025 RMK A01 T00681060  RH  039%=      5-min Rain = 0
KSW1 250513Z 13012KT 07/M06 A3025 RMK A01 T00681060  RH  040%=      5-min Rain = 0
KSW1 250514Z 13013KT 07/M06 A3025 RMK A01 T00681061  RH  039%=      5-min Rain = 0
KSW1 250515Z 13013KT 07/M06 A3025 RMK A01 T00681061  RH  039%=      5-min Rain = 0
KSW1 250516Z 13012KT 07/M06 A3025 RMK A01 T00681061  RH  039%=      5-min Rain = 0
KSW1 250517Z 13013KT 07/M06 A3025 RMK A01 T00681061  RH  039%=      5-min Rain = 0
KSW1 250518Z 13012KT 07/M06 A3025 RMK A01 T00691061  RH  039%=      5-min Rain = 0
KSW1 250519Z 13014KT 07/M06 A3025 RMK A01 T00691061  RH  039%=      5-min Rain = 0
KSW1 250520Z 13013KT 07/M06 A3025 RMK A01 T00691061  RH  039%=      5-min Rain = 0
KSW1 250521Z 13013KT 07/M06 A3025 RMK A01 T00691061  RH  039%=      5-min Rain = 0
KSW1 250522Z 13011KT 07/M06 A3025 RMK A01 T00691061  RH  039%=      5-min Rain = 0
KSW1 250523Z 13012KT 07/M06 A3025 RMK A01 T00681061  RH  040%=      5-min Rain = 0
KSW1 250524Z 13011KT 07/M06 A3025 RMK A01 T00671061  RH  040%=      5-min Rain = 0
KSW1 250525Z 13011KT 07/M06 A3025 RMK A01 T00661060  RH  040%=      5-min Rain = 0
KSW1 250526Z 14013KT 07/M06 A3025 RMK A01 T00651060  RH  040%=      5-min Rain = 0
KSW1 250527Z 14011KT 07/M06 A3025 RMK A01 T00651061  RH  040%=      5-min Rain = 0
KSW1 250528Z 13011KT 07/M06 A3025 RMK A01 T00661060  RH  040%=      5-min Rain = 0
KSW1 250529Z 14012KT 07/M06 A3025 RMK A01 T00661060  RH  040%=      5-min Rain = 0
KSW1 250530Z 13012KT 07/M06 A3025 RMK A01 T00651060  RH  040%=      5-min Rain = 0
KSW1 250531Z 13013KT 07/M06 A3025 RMK A01 T00651061  RH  040%=      5-min Rain = 0
KSW1 250532Z 13012KT 07/M06 A3025 RMK A01 T00651061  RH  040%=      5-min Rain = 0
KSW1 250533Z 13013KT 07/M06 A3025 RMK A01 T00651060  RH  040%=      5-min Rain = 0
KSW1 250534Z 14013KT 07/M06 A3025 RMK A01 T00651060  RH  040%=      5-min Rain = 0
KSW1 250535Z 13012KT 07/M06 A3025 RMK A01 T00651061  RH  040%=      5-min Rain = 0
KSW1 250536Z 13012KT 07/M06 A3025 RMK A01 T00651061  RH  040%=      5-min Rain = 0
KSW1 250537Z 14012G17KT 07/M06 A3025 RMK A01 T00651060  RH  040%=      5-min Rain = 0
KSW1 250538Z 13012KT 07/M06 A3025 RMK A01 T00651060  RH  040%=      5-min Rain = 0
KSW1 250539Z 13013KT 07/M06 A3025 RMK A01 T00651060  RH  040%=      5-min Rain = 0
KSW1 250540Z 13014KT 06/M06 A3025 RMK A01 T00641061  RH  040%=      5-min Rain = 0
KSW1 250541Z 14012KT 07/M06 A3025 RMK A01 T00661061  RH  040%=      5-min Rain = 0
KSW1 250542Z 13013KT 07/M06 A3025 RMK A01 T00661060  RH  040%=      5-min Rain = 0
KSW1 250543Z 13012KT 07/M06 A3025 RMK A01 T00651060  RH  040%=      5-min Rain = 0
KSW1 250544Z 13011KT 06/M06 A3025 RMK A01 T00641060  RH  041%=      5-min Rain = 0
KSW1 250545Z 13013KT 06/M06 A3025 RMK A01 T00641060  RH  041%=      5-min Rain = 0
KSW1 250546Z 13015KT 06/M06 A3025 RMK A01 T00641060  RH  041%=      5-min Rain = 0
KSW1 250547Z 13013KT 06/M06 A3025 RMK A01 T00641060  RH  040%=      5-min Rain = 0
KSW1 250548Z 13012KT 06/M06 A3025 RMK A01 T00641060  RH  041%=      5-min Rain = 0
KSW1 250549Z 14013KT 06/M06 A3025 RMK A01 T00631060  RH  041%=      5-min Rain = 0
KSW1 250550Z 13013KT 06/M06 A3024 RMK A01 T00631060  RH  041%=      5-min Rain = 0
KSW1 250551Z 14014KT 06/M06 A3024 RMK A01 T00631059  RH  041%=      5-min Rain = 0
KSW1 250552Z 13014KT 06/M06 A3024 RMK A01 T00631060  RH  041%=      5-min Rain = 0
KSW1 250553Z 13013G18KT 06/M06 A3024 RMK A01 T00631060  RH  041%=      5-min Rain = 0
KSW1 250554Z 13014KT 06/M06 A3024 RMK A01 T00631060  RH  041%=      5-min Rain = 0
KSW1 250555Z 13012KT 06/M06 A3024 RMK A01 T00631060  RH  041%=      5-min Rain = 0
KSW1 250556Z 13014KT 06/M06 A3024 RMK A01 T00631059  RH  041%=      5-min Rain = 0
KSW1 250557Z 13015KT 06/M06 A3024 RMK A01 T00631059  RH  041%=      5-min Rain = 0
KSW1 250558Z 13015KT 06/M06 A3024 RMK A01 T00631059  RH  041%=      5-min Rain = 0
KSW1 250559Z 13013KT 06/M06 A3024 RMK A01 T00641059  RH  041%=      5-min Rain = 0

Page generated in 0.1185 seconds.